Time,TemperatureF,DewpointF,PressureIn,WindDirection,WindDirectionDegrees,WindSpeedMPH,WindSpeedGustMPH,Humidity,HourlyPrecipIn,Conditions,Clouds,dailyrainin,SoftwareType,DateUTC
2013-06-20 00:01:00,59.9,52.3,30.17,SW,227,0.0,0.0,76,0.00,,,0.00,Wunderground v.1.15,2013-06-20 04:01:00,
2013-06-20 00:03:00,59.8,52.6,30.17,SW,227,0.0,0.0,77,0.00,,,0.00,Wunderground v.1.15,2013-06-20 04:03:00,
2013-06-20 00:06:00,59.6,52.4,30.17,SW,227,0.0,0.0,77,0.00,,,0.00,Wunderground v.1.15,2013-06-20 04:06:00,
2013-06-20 00:07:00,59.6,52.4,30.17,SW,227,0.0,0.0,77,0.00,,,0.00,Wunderground v.1.15,2013-06-20 04:07:00,
2013-06-20 00:08:00,59.6,52.4,30.17,SW,227,0.0,0.0,77,0.00,,,0.00,Wunderground v.1.15,2013-06-20 04:08:00,
2013-06-20 00:10:00,59.5,52.6,30.17,SW,227,0.0,0.0,78,0.00,,,0.00,Wunderground v.1.15,2013-06-20 04:10:00,
2013-06-20 00:12:00,59.5,52.6,30.17,SW,227,0.0,0.0,78,0.00,,,0.00,Wunderground v.1.15,2013-06-20 04:12:00,
2013-06-20 00:13:00,59.5,52.6,30.17,SW,227,0.0,0.0,78,0.00,,,0.00,Wunderground v.1.15,2013-06-20 04:13:00,
2013-06-20 00:14:00,59.5,52.6,30.17,SW,227,0.0,0.0,78,0.00,,,0.00,Wunderground v.1.15,2013-06-20 04:14:00,
2013-06-20 00:18:00,59.3,52.4,30.17,SW,227,0.0,0.0,78,0.00,,,0.00,Wunderground v.1.15,2013-06-20 04:18:00,
2013-06-20 00:19:00,59.3,52.4,30.17,SW,227,0.0,0.0,78,0.00,,,0.00,Wunderground v.1.15,2013-06-20 04:19:00,
2013-06-20 00:23:00,59.2,52.7,30.18,SW,227,0.0,0.0,79,0.00,,,0.00,Wunderground v.1.15,2013-06-20 04:23:00,
2013-06-20 00:24:00,59.2,52.7,30.18,SW,227,0.0,0.0,79,0.00,,,0.00,Wunderground v.1.15,2013-06-20 04:24:00,
2013-06-20 00:25:00,59.2,52.7,30.18,SW,227,0.0,0.0,79,0.00,,,0.00,Wunderground v.1.15,2013-06-20 04:25:00,
2013-06-20 00:28:00,59.2,53.0,30.18,SW,227,0.0,0.0,80,0.00,,,0.00,Wunderground v.1.15,2013-06-20 04:28:00,
2013-06-20 00:29:00,59.2,53.0,30.18,SW,227,0.0,0.0,80,0.00,,,0.00,Wunderground v.1.15,2013-06-20 04:29:00,
2013-06-20 00:31:00,59.0,52.8,30.18,SW,227,0.0,0.0,80,0.00,,,0.00,Wunderground v.1.15,2013-06-20 04:31:00,
2013-06-20 00:32:00,59.0,52.8,30.18,SW,227,0.0,0.0,80,0.00,,,0.00,Wunderground v.1.15,2013-06-20 04:32:00,
2013-06-20 00:34:00,59.0,52.8,30.18,SW,227,0.0,0.0,80,0.00,,,0.00,Wunderground v.1.15,2013-06-20 04:34:00,
2013-06-20 00:38:00,58.9,53.1,30.19,SW,227,0.0,0.0,81,0.00,,,0.00,Wunderground v.1.15,2013-06-20 04:38:00,
2013-06-20 00:39:00,58.9,53.1,30.19,SW,227,0.0,0.0,81,0.00,,,0.00,Wunderground v.1.15,2013-06-20 04:39:00,
2013-06-20 00:41:00,58.9,53.1,30.19,SW,227,0.0,0.0,81,0.00,,,0.00,Wunderground v.1.15,2013-06-20 04:41:00,
2013-06-20 00:42:00,58.9,53.1,30.19,SW,227,0.0,0.0,81,0.00,,,0.00,Wunderground v.1.15,2013-06-20 04:42:00,
2013-06-20 00:43:00,58.9,53.1,30.19,SW,227,0.0,0.0,81,0.00,,,0.00,Wunderground v.1.15,2013-06-20 04:43:00,
2013-06-20 00:44:00,58.9,53.1,30.19,SW,227,0.0,0.0,81,0.00,,,0.00,Wunderground v.1.15,2013-06-20 04:44:00,
2013-06-20 00:47:00,58.7,52.9,30.19,SW,227,0.0,0.0,81,0.00,,,0.00,Wunderground v.1.15,2013-06-20 04:47:00,
2013-06-20 00:49:00,58.7,52.9,30.19,SW,227,0.0,0.0,81,0.00,,,0.00,Wunderground v.1.15,2013-06-20 04:49:00,
2013-06-20 00:50:00,58.7,52.9,30.19,SW,227,0.0,0.0,81,0.00,,,0.00,Wunderground v.1.15,2013-06-20 04:50:00,
2013-06-20 00:51:00,58.7,52.9,30.19,SW,227,0.0,0.0,81,0.00,,,0.00,Wunderground v.1.15,2013-06-20 04:51:00,
2013-06-20 00:55:00,58.7,52.9,30.19,SW,227,0.0,0.0,81,0.00,,,0.00,Wunderground v.1.15,2013-06-20 04:55:00,
2013-06-20 00:56:00,58.7,52.9,30.19,SW,227,0.0,0.0,81,0.00,,,0.00,Wunderground v.1.15,2013-06-20 04:56:00,
2013-06-20 00:57:00,58.7,52.9,30.19,SW,227,0.0,0.0,81,0.00,,,0.00,Wunderground v.1.15,2013-06-20 04:57:00,
2013-06-20 00:59:00,58.7,52.9,30.19,SW,227,0.0,0.0,81,0.00,,,0.00,Wunderground v.1.15,2013-06-20 04:59:00,
2013-06-20 01:00:00,58.7,53.2,30.19,SW,227,0.0,0.0,82,0.00,,,0.00,Wunderground v.1.15,2013-06-20 05:00:00,
2013-06-20 01:03:00,58.7,53.2,30.19,SW,227,0.0,0.0,82,0.00,,,0.00,Wunderground v.1.15,2013-06-20 05:03:00,
2013-06-20 01:05:00,58.7,53.2,30.19,SW,227,0.0,0.0,82,0.00,,,0.00,Wunderground v.1.15,2013-06-20 05:05:00,
2013-06-20 01:08:00,58.6,53.1,30.19,SW,227,0.0,0.0,82,0.00,,,0.00,Wunderground v.1.15,2013-06-20 05:08:00,
2013-06-20 01:09:00,58.6,53.1,30.19,SW,227,0.0,0.0,82,0.00,,,0.00,Wunderground v.1.15,2013-06-20 05:09:00,
2013-06-20 01:10:00,58.6,53.1,30.19,SW,227,0.0,0.0,82,0.00,,,0.00,Wunderground v.1.15,2013-06-20 05:10:00,
2013-06-20 01:12:00,58.6,53.1,30.19,SW,227,0.0,0.0,82,0.00,,,0.00,Wunderground v.1.15,2013-06-20 05:12:00,
2013-06-20 01:14:00,58.6,53.1,30.19,SW,227,0.0,0.0,82,0.00,,,0.00,Wunderground v.1.15,2013-06-20 05:14:00,
2013-06-20 01:15:00,58.6,53.1,30.19,SW,227,0.0,0.0,82,0.00,,,0.00,Wunderground v.1.15,2013-06-20 05:15:00,
2013-06-20 01:16:00,58.6,53.1,30.19,SW,227,0.0,0.0,82,0.00,,,0.00,Wunderground v.1.15,2013-06-20 05:16:00,
2013-06-20 01:20:00,58.4,53.3,30.19,SW,227,0.0,0.0,83,0.00,,,0.00,Wunderground v.1.15,2013-06-20 05:20:00,
2013-06-20 01:21:00,58.4,53.3,30.19,SW,227,0.0,0.0,83,0.00,,,0.00,Wunderground v.1.15,2013-06-20 05:21:00,
2013-06-20 01:22:00,58.4,53.3,30.19,SW,227,0.0,0.0,83,0.00,,,0.00,Wunderground v.1.15,2013-06-20 05:22:00,
2013-06-20 01:24:00,58.4,53.3,30.19,SW,227,0.0,0.0,83,0.00,,,0.00,Wunderground v.1.15,2013-06-20 05:24:00,
2013-06-20 01:25:00,58.4,53.3,30.19,SW,227,0.0,0.0,83,0.00,,,0.00,Wunderground v.1.15,2013-06-20 05:25:00,
2013-06-20 01:26:00,58.4,53.3,30.19,SW,227,0.0,0.0,83,0.00,,,0.00,Wunderground v.1.15,2013-06-20 05:26:00,
2013-06-20 01:29:00,58.3,53.2,30.19,SW,227,0.0,0.0,83,0.00,,,0.00,Wunderground v.1.15,2013-06-20 05:29:00,
2013-06-20 01:30:00,58.3,53.2,30.19,SW,227,0.0,0.0,83,0.00,,,0.00,Wunderground v.1.15,2013-06-20 05:30:00,
2013-06-20 01:31:00,58.3,53.2,30.19,SW,227,0.0,0.0,83,0.00,,,0.00,Wunderground v.1.15,2013-06-20 05:31:00,
2013-06-20 01:32:00,58.3,53.2,30.19,SW,227,0.0,0.0,83,0.00,,,0.00,Wunderground v.1.15,2013-06-20 05:32:00,
2013-06-20 01:34:00,58.3,53.2,30.19,SW,227,0.0,0.0,83,0.00,,,0.00,Wunderground v.1.15,2013-06-20 05:34:00,
2013-06-20 01:35:00,58.3,53.2,30.19,SW,227,0.0,0.0,83,0.00,,,0.00,Wunderground v.1.15,2013-06-20 05:35:00,
2013-06-20 01:37:00,58.1,53.0,30.19,SW,227,0.0,0.0,83,0.00,,,0.00,Wunderground v.1.15,2013-06-20 05:37:00,
2013-06-20 01:38:00,58.1,53.0,30.19,SW,227,0.0,0.0,83,0.00,,,0.00,Wunderground v.1.15,2013-06-20 05:38:00,
2013-06-20 01:40:00,58.1,53.3,30.19,SW,227,0.0,0.0,84,0.00,,,0.00,Wunderground v.1.15,2013-06-20 05:40:00,
2013-06-20 01:43:00,58.1,53.3,30.19,SW,227,0.0,0.0,84,0.00,,,0.00,Wunderground v.1.15,2013-06-20 05:43:00,
2013-06-20 01:44:00,58.1,53.3,30.19,SW,227,0.0,0.0,84,0.00,,,0.00,Wunderground v.1.15,2013-06-20 05:44:00,
2013-06-20 01:45:00,58.1,53.3,30.19,SW,227,0.0,0.0,84,0.00,,,0.00,Wunderground v.1.15,2013-06-20 05:45:00,
2013-06-20 01:46:00,58.1,53.3,30.19,SW,227,0.0,0.0,84,0.00,,,0.00,Wunderground v.1.15,2013-06-20 05:46:00,
2013-06-20 01:47:00,58.1,53.3,30.20,SW,227,0.0,0.0,84,0.00,,,0.00,Wunderground v.1.15,2013-06-20 05:47:00,
2013-06-20 01:50:00,58.0,53.2,30.20,SW,227,0.0,0.0,84,0.00,,,0.00,Wunderground v.1.15,2013-06-20 05:50:00,
2013-06-20 01:53:00,58.0,53.2,30.20,SW,227,0.0,0.0,84,0.00,,,0.00,Wunderground v.1.15,2013-06-20 05:53:00,
2013-06-20 01:54:00,58.0,53.2,30.20,SW,227,0.0,0.0,84,0.00,,,0.00,Wunderground v.1.15,2013-06-20 05:54:00,
2013-06-20 01:55:00,58.0,53.2,30.20,SW,227,0.0,0.0,84,0.00,,,0.00,Wunderground v.1.15,2013-06-20 05:55:00,
2013-06-20 01:57:00,58.0,53.2,30.20,SW,227,0.0,0.0,84,0.00,,,0.00,Wunderground v.1.15,2013-06-20 05:57:00,
2013-06-20 01:58:00,58.0,53.5,30.20,SW,227,0.0,0.0,85,0.00,,,0.00,Wunderground v.1.15,2013-06-20 05:58:00,
2013-06-20 02:01:00,58.1,53.6,30.20,SW,227,0.0,0.0,85,0.00,,,0.00,Wunderground v.1.15,2013-06-20 06:01:00,
2013-06-20 02:03:00,58.1,53.3,30.20,SW,227,0.0,0.0,84,0.00,,,0.00,Wunderground v.1.15,2013-06-20 06:03:00,
2013-06-20 02:04:00,58.1,53.3,30.20,SW,227,0.0,0.0,84,0.00,,,0.00,Wunderground v.1.15,2013-06-20 06:04:00,
2013-06-20 02:06:00,58.1,53.3,30.20,SW,227,0.0,0.0,84,0.00,,,0.00,Wunderground v.1.15,2013-06-20 06:06:00,
2013-06-20 02:08:00,58.1,53.3,30.20,SW,227,0.0,0.0,84,0.00,,,0.00,Wunderground v.1.15,2013-06-20 06:08:00,
2013-06-20 02:09:00,58.1,53.3,30.20,SW,227,0.0,0.0,84,0.00,,,0.00,Wunderground v.1.15,2013-06-20 06:09:00,
2013-06-20 02:11:00,58.1,53.6,30.20,SW,227,0.0,0.0,85,0.00,,,0.00,Wunderground v.1.15,2013-06-20 06:11:00,
2013-06-20 02:13:00,58.1,53.3,30.20,SW,227,0.0,0.0,84,0.00,,,0.00,Wunderground v.1.15,2013-06-20 06:13:00,
2013-06-20 02:14:00,58.1,53.3,30.20,SW,227,0.0,0.0,84,0.00,,,0.00,Wunderground v.1.15,2013-06-20 06:14:00,
2013-06-20 02:16:00,58.3,53.8,30.20,SW,227,0.0,0.0,85,0.00,,,0.00,Wunderground v.1.15,2013-06-20 06:16:00,
2013-06-20 02:17:00,58.3,53.8,30.20,SW,227,0.0,0.0,85,0.00,,,0.00,Wunderground v.1.15,2013-06-20 06:17:00,
2013-06-20 02:18:00,58.3,53.5,30.20,SW,227,0.0,0.0,84,0.00,,,0.00,Wunderground v.1.15,2013-06-20 06:18:00,
2013-06-20 02:19:00,58.3,53.5,30.20,SW,227,0.0,0.0,84,0.00,,,0.00,Wunderground v.1.15,2013-06-20 06:19:00,
2013-06-20 02:21:00,58.3,53.5,30.19,SW,227,0.0,1.0,84,0.00,,,0.00,Wunderground v.1.15,2013-06-20 06:21:00,
2013-06-20 02:22:00,58.3,53.5,30.19,SW,227,0.0,1.0,84,0.00,,,0.00,Wunderground v.1.15,2013-06-20 06:22:00,
2013-06-20 02:24:00,58.3,53.5,30.19,SW,227,0.0,1.0,84,0.00,,,0.00,Wunderground v.1.15,2013-06-20 06:24:00,
2013-06-20 02:25:00,58.3,53.5,30.19,SW,227,0.0,1.0,84,0.00,,,0.00,Wunderground v.1.15,2013-06-20 06:25:00,
2013-06-20 02:26:00,58.3,53.5,30.19,SW,227,0.0,1.0,84,0.00,,,0.00,Wunderground v.1.15,2013-06-20 06:26:00,
2013-06-20 02:27:00,58.3,53.5,30.19,SW,227,0.0,1.0,84,0.00,,,0.00,Wunderground v.1.15,2013-06-20 06:27:00,
2013-06-20 02:29:00,58.3,53.5,30.19,SW,227,0.0,1.0,84,0.00,,,0.00,Wunderground v.1.15,2013-06-20 06:29:00,
2013-06-20 02:30:00,58.3,53.5,30.19,SW,227,0.0,0.0,84,0.00,,,0.00,Wunderground v.1.15,2013-06-20 06:30:00,
2013-06-20 02:31:00,58.3,53.5,30.19,SW,227,0.0,0.0,84,0.00,,,0.00,Wunderground v.1.15,2013-06-20 06:31:00,
2013-06-20 02:33:00,58.3,53.5,30.19,SW,227,0.0,0.0,84,0.00,,,0.00,Wunderground v.1.15,2013-06-20 06:33:00,
2013-06-20 02:34:00,58.3,53.5,30.19,SW,227,0.0,0.0,84,0.00,,,0.00,Wunderground v.1.15,2013-06-20 06:34:00,
2013-06-20 02:35:00,58.3,53.5,30.19,SW,227,0.0,0.0,84,0.00,,,0.00,Wunderground v.1.15,2013-06-20 06:35:00,
2013-06-20 02:36:00,58.3,53.5,30.19,SW,227,0.0,0.0,84,0.00,,,0.00,Wunderground v.1.15,2013-06-20 06:36:00,
2013-06-20 02:39:00,58.3,53.5,30.19,SW,227,0.0,0.0,84,0.00,,,0.00,Wunderground v.1.15,2013-06-20 06:39:00,
2013-06-20 02:40:00,58.3,53.5,30.19,SW,227,0.0,0.0,84,0.00,,,0.00,Wunderground v.1.15,2013-06-20 06:40:00,
2013-06-20 02:41:00,58.1,53.3,30.19,SW,227,0.0,0.0,84,0.00,,,0.00,Wunderground v.1.15,2013-06-20 06:41:00,
2013-06-20 02:42:00,58.1,53.3,30.19,SW,227,0.0,0.0,84,0.00,,,0.00,Wunderground v.1.15,2013-06-20 06:42:00,
2013-06-20 02:45:00,58.1,53.3,30.19,SW,227,0.0,0.0,84,0.00,,,0.00,Wunderground v.1.15,2013-06-20 06:45:00,
2013-06-20 02:46:00,58.1,53.6,30.19,SW,227,0.0,0.0,85,0.00,,,0.00,Wunderground v.1.15,2013-06-20 06:46:00,
2013-06-20 02:47:00,58.1,53.6,30.19,SW,227,0.0,0.0,85,0.00,,,0.00,Wunderground v.1.15,2013-06-20 06:47:00,
2013-06-20 02:50:00,58.1,53.6,30.20,SW,227,0.0,0.0,85,0.00,,,0.00,Wunderground v.1.15,2013-06-20 06:50:00,
2013-06-20 02:51:00,58.1,53.6,30.20,SW,227,1.0,1.0,85,0.00,,,0.00,Wunderground v.1.15,2013-06-20 06:51:00,
2013-06-20 02:53:00,58.1,53.6,30.20,SW,232,0.0,2.0,85,0.00,,,0.00,Wunderground v.1.15,2013-06-20 06:53:00,
2013-06-20 02:55:00,58.1,53.6,30.20,NNW,348,0.0,2.0,85,0.00,,,0.00,Wunderground v.1.15,2013-06-20 06:55:00,
2013-06-20 02:56:00,58.1,53.6,30.20,NNW,348,0.0,2.0,85,0.00,,,0.00,Wunderground v.1.15,2013-06-20 06:56:00,
2013-06-20 02:58:00,58.1,53.6,30.19,NNW,348,0.0,2.0,85,0.00,,,0.00,Wunderground v.1.15,2013-06-20 06:58:00,
2013-06-20 03:00:00,58.0,53.5,30.19,NNW,348,0.0,0.0,85,0.00,,,0.00,Wunderground v.1.15,2013-06-20 07:00:00,
2013-06-20 03:01:00,58.0,53.5,30.19,NNW,348,0.0,0.0,85,0.00,,,0.00,Wunderground v.1.15,2013-06-20 07:01:00,
2013-06-20 03:03:00,57.8,53.3,30.19,NNW,348,0.0,0.0,85,0.00,,,0.00,Wunderground v.1.15,2013-06-20 07:03:00,
2013-06-20 03:05:00,57.8,53.3,30.20,NNW,348,1.0,1.0,85,0.00,,,0.00,Wunderground v.1.15,2013-06-20 07:05:00,
2013-06-20 03:06:00,57.6,53.1,30.20,NNW,348,0.0,1.0,85,0.00,,,0.00,Wunderground v.1.15,2013-06-20 07:06:00,
2013-06-20 03:08:00,57.6,53.1,30.20,NNW,348,0.0,1.0,85,0.00,,,0.00,Wunderground v.1.15,2013-06-20 07:08:00,
2013-06-20 03:11:00,57.5,53.3,30.21,NNW,348,0.0,1.0,86,0.00,,,0.00,Wunderground v.1.15,2013-06-20 07:11:00,
2013-06-20 03:12:00,57.5,53.3,30.21,NNW,348,0.0,1.0,86,0.00,,,0.00,Wunderground v.1.15,2013-06-20 07:12:00,
2013-06-20 03:14:00,57.5,53.3,30.21,NNW,348,0.0,1.0,86,0.00,,,0.00,Wunderground v.1.15,2013-06-20 07:14:00,
2013-06-20 03:16:00,57.5,53.3,30.21,NNW,348,0.0,1.0,86,0.00,,,0.00,Wunderground v.1.15,2013-06-20 07:16:00,
2013-06-20 03:17:00,57.5,53.3,30.21,NNW,348,0.0,1.0,86,0.00,,,0.00,Wunderground v.1.15,2013-06-20 07:17:00,
2013-06-20 03:19:00,57.3,53.1,30.21,NNW,348,0.0,1.0,86,0.00,,,0.00,Wunderground v.1.15,2013-06-20 07:19:00,
2013-06-20 03:21:00,57.3,53.1,30.21,NNW,348,0.0,0.0,86,0.00,,,0.00,Wunderground v.1.15,2013-06-20 07:21:00,
2013-06-20 03:22:00,57.2,53.0,30.21,NNW,348,0.0,0.0,86,0.00,,,0.00,Wunderground v.1.15,2013-06-20 07:22:00,
2013-06-20 03:23:00,57.2,53.0,30.21,NNW,348,0.0,0.0,86,0.00,,,0.00,Wunderground v.1.15,2013-06-20 07:23:00,
2013-06-20 03:24:00,57.2,53.0,30.21,NNW,348,0.0,0.0,86,0.00,,,0.00,Wunderground v.1.15,2013-06-20 07:24:00,
2013-06-20 03:26:00,57.0,53.2,30.21,NNW,348,0.0,0.0,87,0.00,,,0.00,Wunderground v.1.15,2013-06-20 07:26:00,
2013-06-20 03:27:00,57.0,53.2,30.21,NNW,348,0.0,0.0,87,0.00,,,0.00,Wunderground v.1.15,2013-06-20 07:27:00,
2013-06-20 03:28:00,57.0,53.2,30.21,NNW,348,0.0,0.0,87,0.00,,,0.00,Wunderground v.1.15,2013-06-20 07:28:00,
2013-06-20 03:29:00,57.0,53.2,30.21,NNW,348,0.0,0.0,87,0.00,,,0.00,Wunderground v.1.15,2013-06-20 07:29:00,
2013-06-20 03:32:00,56.9,53.1,30.21,NNW,348,0.0,0.0,87,0.00,,,0.00,Wunderground v.1.15,2013-06-20 07:32:00,
2013-06-20 03:33:00,56.9,53.1,30.21,NNW,348,0.0,0.0,87,0.00,,,0.00,Wunderground v.1.15,2013-06-20 07:33:00,
2013-06-20 03:34:00,56.9,53.1,30.21,NNW,348,0.0,0.0,87,0.00,,,0.00,Wunderground v.1.15,2013-06-20 07:34:00,
2013-06-20 03:37:00,56.7,52.9,30.22,NNW,348,0.0,0.0,87,0.00,,,0.00,Wunderground v.1.15,2013-06-20 07:37:00,
2013-06-20 03:38:00,56.7,52.9,30.22,NNW,348,0.0,0.0,87,0.00,,,0.00,Wunderground v.1.15,2013-06-20 07:38:00,
2013-06-20 03:39:00,56.7,52.9,30.22,NNW,348,0.0,0.0,87,0.00,,,0.00,Wunderground v.1.15,2013-06-20 07:39:00,
2013-06-20 03:40:00,56.6,52.8,30.22,NNW,348,0.0,0.0,87,0.00,,,0.00,Wunderground v.1.15,2013-06-20 07:40:00,
2013-06-20 03:42:00,56.6,53.1,30.22,NNW,348,0.0,0.0,88,0.00,,,0.00,Wunderground v.1.15,2013-06-20 07:42:00,
2013-06-20 03:43:00,56.5,53.0,30.22,NNW,348,0.0,0.0,88,0.00,,,0.00,Wunderground v.1.15,2013-06-20 07:43:00,
2013-06-20 03:44:00,56.5,53.0,30.22,NNW,348,0.0,0.0,88,0.00,,,0.00,Wunderground v.1.15,2013-06-20 07:44:00,
2013-06-20 03:45:00,56.5,53.0,30.22,NNW,348,0.0,0.0,88,0.00,,,0.00,Wunderground v.1.15,2013-06-20 07:45:00,
2013-06-20 03:47:00,56.5,53.0,30.22,NNW,348,0.0,0.0,88,0.00,,,0.00,Wunderground v.1.15,2013-06-20 07:47:00,
2013-06-20 03:48:00,56.5,53.0,30.22,NNW,348,0.0,0.0,88,0.00,,,0.00,Wunderground v.1.15,2013-06-20 07:48:00,
2013-06-20 03:49:00,56.5,53.0,30.22,NNW,348,0.0,0.0,88,0.00,,,0.00,Wunderground v.1.15,2013-06-20 07:49:00,
2013-06-20 03:50:00,56.3,52.8,30.22,NNW,348,0.0,0.0,88,0.00,,,0.00,Wunderground v.1.15,2013-06-20 07:50:00,
2013-06-20 03:53:00,56.3,52.8,30.22,NNW,348,0.0,0.0,88,0.00,,,0.00,Wunderground v.1.15,2013-06-20 07:53:00,
2013-06-20 03:54:00,56.3,52.8,30.22,NNW,348,0.0,0.0,88,0.00,,,0.00,Wunderground v.1.15,2013-06-20 07:54:00,
2013-06-20 03:55:00,56.3,52.8,30.22,NNW,348,0.0,0.0,88,0.00,,,0.00,Wunderground v.1.15,2013-06-20 07:55:00,
2013-06-20 03:58:00,56.2,52.7,30.22,NNW,348,0.0,0.0,88,0.00,,,0.00,Wunderground v.1.15,2013-06-20 07:58:00,
2013-06-20 03:59:00,56.2,53.0,30.22,NNW,348,0.0,0.0,89,0.00,,,0.00,Wunderground v.1.15,2013-06-20 07:59:00,
2013-06-20 04:00:00,56.2,53.0,30.22,NNW,348,0.0,0.0,89,0.00,,,0.00,Wunderground v.1.15,2013-06-20 08:00:00,
2013-06-20 04:03:00,56.2,53.0,30.22,NNW,348,0.0,0.0,89,0.00,,,0.00,Wunderground v.1.15,2013-06-20 08:03:00,
2013-06-20 04:04:00,56.2,53.0,30.22,NNW,348,0.0,0.0,89,0.00,,,0.00,Wunderground v.1.15,2013-06-20 08:04:00,
2013-06-20 04:05:00,56.2,53.0,30.22,NNW,348,0.0,0.0,89,0.00,,,0.00,Wunderground v.1.15,2013-06-20 08:05:00,
2013-06-20 04:06:00,56.2,53.0,30.22,NNW,348,0.0,0.0,89,0.00,,,0.00,Wunderground v.1.15,2013-06-20 08:06:00,
2013-06-20 04:09:00,56.2,53.0,30.22,NNW,348,0.0,0.0,89,0.00,,,0.00,Wunderground v.1.15,2013-06-20 08:09:00,
2013-06-20 04:10:00,56.2,53.0,30.22,NNW,348,0.0,0.0,89,0.00,,,0.00,Wunderground v.1.15,2013-06-20 08:10:00,
2013-06-20 04:11:00,56.2,53.0,30.22,NNW,348,0.0,0.0,89,0.00,,,0.00,Wunderground v.1.15,2013-06-20 08:11:00,
2013-06-20 04:14:00,56.2,53.0,30.22,NNW,348,0.0,0.0,89,0.00,,,0.00,Wunderground v.1.15,2013-06-20 08:14:00,
2013-06-20 04:15:00,56.2,53.0,30.22,NNW,348,0.0,0.0,89,0.00,,,0.00,Wunderground v.1.15,2013-06-20 08:15:00,
2013-06-20 04:17:00,56.2,53.0,30.22,NNW,348,0.0,0.0,89,0.00,,,0.00,Wunderground v.1.15,2013-06-20 08:17:00,
2013-06-20 04:19:00,56.2,53.0,30.22,NNW,348,0.0,0.0,89,0.00,,,0.00,Wunderground v.1.15,2013-06-20 08:19:00,
2013-06-20 04:20:00,56.2,53.0,30.22,NNW,348,0.0,0.0,89,0.00,,,0.00,Wunderground v.1.15,2013-06-20 08:20:00,
2013-06-20 04:21:00,56.2,53.0,30.22,NNW,348,0.0,0.0,89,0.00,,,0.00,Wunderground v.1.15,2013-06-20 08:21:00,
2013-06-20 04:22:00,56.0,52.8,30.22,NNW,348,0.0,0.0,89,0.00,,,0.00,Wunderground v.1.15,2013-06-20 08:22:00,
2013-06-20 04:25:00,56.0,53.1,30.22,NNW,348,0.0,0.0,90,0.00,,,0.00,Wunderground v.1.15,2013-06-20 08:25:00,
2013-06-20 04:27:00,56.0,53.1,30.22,NNW,348,0.0,0.0,90,0.00,,,0.00,Wunderground v.1.15,2013-06-20 08:27:00,
2013-06-20 04:30:00,56.0,53.1,30.22,NNW,348,0.0,0.0,90,0.00,,,0.00,Wunderground v.1.15,2013-06-20 08:30:00,
2013-06-20 04:31:00,56.0,53.1,30.22,NNW,348,0.0,0.0,90,0.00,,,0.00,Wunderground v.1.15,2013-06-20 08:31:00,
2013-06-20 04:32:00,56.0,53.1,30.22,NNW,348,0.0,0.0,90,0.00,,,0.00,Wunderground v.1.15,2013-06-20 08:32:00,
2013-06-20 04:36:00,56.0,53.1,30.22,NNW,348,0.0,0.0,90,0.00,,,0.00,Wunderground v.1.15,2013-06-20 08:36:00,
2013-06-20 04:37:00,56.0,53.1,30.22,NNW,348,0.0,0.0,90,0.00,,,0.00,Wunderground v.1.15,2013-06-20 08:37:00,
2013-06-20 04:41:00,56.0,53.1,30.22,NNW,348,0.0,0.0,90,0.00,,,0.00,Wunderground v.1.15,2013-06-20 08:41:00,
2013-06-20 04:42:00,56.0,53.1,30.22,NNW,348,0.0,0.0,90,0.00,,,0.00,Wunderground v.1.15,2013-06-20 08:42:00,
2013-06-20 04:43:00,56.0,53.1,30.22,NNW,348,0.0,0.0,90,0.00,,,0.00,Wunderground v.1.15,2013-06-20 08:43:00,
2013-06-20 04:46:00,56.0,53.1,30.22,NNW,348,0.0,0.0,90,0.00,,,0.00,Wunderground v.1.15,2013-06-20 08:46:00,
2013-06-20 04:47:00,56.0,53.1,30.22,NNW,348,0.0,0.0,90,0.00,,,0.00,Wunderground v.1.15,2013-06-20 08:47:00,
2013-06-20 04:48:00,56.0,53.1,30.22,NNW,348,0.0,0.0,90,0.00,,,0.00,Wunderground v.1.15,2013-06-20 08:48:00,
2013-06-20 04:51:00,56.0,53.1,30.22,NNW,348,0.0,0.0,90,0.00,,,0.00,Wunderground v.1.15,2013-06-20 08:51:00,
2013-06-20 04:52:00,56.0,53.1,30.22,NNW,348,0.0,0.0,90,0.00,,,0.00,Wunderground v.1.15,2013-06-20 08:52:00,
2013-06-20 04:54:00,56.0,53.1,30.22,NNW,348,0.0,0.0,90,0.00,,,0.00,Wunderground v.1.15,2013-06-20 08:54:00,
2013-06-20 04:56:00,56.0,53.1,30.22,NNW,348,0.0,0.0,90,0.00,,,0.00,Wunderground v.1.15,2013-06-20 08:56:00,
2013-06-20 04:58:00,56.0,53.1,30.23,NNW,348,0.0,0.0,90,0.00,,,0.00,Wunderground v.1.15,2013-06-20 08:58:00,
2013-06-20 04:59:00,56.0,53.1,30.23,NNW,348,0.0,0.0,90,0.00,,,0.00,Wunderground v.1.15,2013-06-20 08:59:00,
2013-06-20 05:01:00,56.0,53.1,30.23,NNW,348,0.0,0.0,90,0.00,,,0.00,Wunderground v.1.15,2013-06-20 09:01:00,
2013-06-20 05:02:00,55.9,53.0,30.23,NNW,348,0.0,0.0,90,0.00,,,0.00,Wunderground v.1.15,2013-06-20 09:02:00,
2013-06-20 05:03:00,55.9,53.0,30.23,NNW,348,0.0,0.0,90,0.00,,,0.00,Wunderground v.1.15,2013-06-20 09:03:00,
2013-06-20 05:04:00,55.9,53.0,30.23,NNW,348,0.0,0.0,90,0.00,,,0.00,Wunderground v.1.15,2013-06-20 09:04:00,
2013-06-20 05:06:00,55.9,53.0,30.23,NNW,348,0.0,0.0,90,0.00,,,0.00,Wunderground v.1.15,2013-06-20 09:06:00,
2013-06-20 05:07:00,55.9,53.0,30.23,NNW,348,0.0,0.0,90,0.00,,,0.00,Wunderground v.1.15,2013-06-20 09:07:00,
2013-06-20 05:08:00,55.9,53.0,30.23,NNW,348,0.0,0.0,90,0.00,,,0.00,Wunderground v.1.15,2013-06-20 09:08:00,
2013-06-20 05:09:00,55.9,53.0,30.23,NNW,348,0.0,0.0,90,0.00,,,0.00,Wunderground v.1.15,2013-06-20 09:09:00,
2013-06-20 05:12:00,55.9,53.0,30.23,NNW,348,0.0,0.0,90,0.00,,,0.00,Wunderground v.1.15,2013-06-20 09:12:00,
2013-06-20 05:14:00,55.9,53.0,30.23,NNW,348,0.0,0.0,90,0.00,,,0.00,Wunderground v.1.15,2013-06-20 09:14:00,
2013-06-20 05:15:00,55.9,53.0,30.23,NNW,348,0.0,0.0,90,0.00,,,0.00,Wunderground v.1.15,2013-06-20 09:15:00,
2013-06-20 05:17:00,55.9,53.0,30.23,NNW,348,0.0,0.0,90,0.00,,,0.00,Wunderground v.1.15,2013-06-20 09:17:00,
2013-06-20 05:19:00,55.9,53.0,30.23,NNW,348,0.0,0.0,90,0.00,,,0.00,Wunderground v.1.15,2013-06-20 09:19:00,
2013-06-20 05:20:00,55.9,53.0,30.23,NNW,348,0.0,0.0,90,0.00,,,0.00,Wunderground v.1.15,2013-06-20 09:20:00,
2013-06-20 05:22:00,55.9,53.0,30.23,NNW,348,0.0,0.0,90,0.00,,,0.00,Wunderground v.1.15,2013-06-20 09:22:00,
2013-06-20 05:24:00,55.9,53.3,30.23,NNW,348,0.0,0.0,91,0.00,,,0.00,Wunderground v.1.15,2013-06-20 09:24:00,
2013-06-20 05:25:00,55.9,53.3,30.23,NNW,348,0.0,0.0,91,0.00,,,0.00,Wunderground v.1.15,2013-06-20 09:25:00,
2013-06-20 05:27:00,55.9,53.3,30.24,NNW,348,0.0,0.0,91,0.00,,,0.00,Wunderground v.1.15,2013-06-20 09:27:00,
2013-06-20 05:29:00,55.9,53.3,30.24,NNW,348,0.0,0.0,91,0.00,,,0.00,Wunderground v.1.15,2013-06-20 09:29:00,
2013-06-20 05:30:00,55.9,53.3,30.24,NNW,348,0.0,0.0,91,0.00,,,0.00,Wunderground v.1.15,2013-06-20 09:30:00,
2013-06-20 05:31:00,55.9,53.3,30.24,NNW,348,0.0,0.0,91,0.00,,,0.00,Wunderground v.1.15,2013-06-20 09:31:00,
2013-06-20 05:32:00,55.9,53.3,30.24,NNW,348,0.0,0.0,91,0.00,,,0.00,Wunderground v.1.15,2013-06-20 09:32:00,
2013-06-20 05:33:00,55.9,53.3,30.24,NNW,348,0.0,0.0,91,0.00,,,0.00,Wunderground v.1.15,2013-06-20 09:33:00,
2013-06-20 05:34:00,55.9,53.3,30.24,NNW,348,0.0,0.0,91,0.00,,,0.00,Wunderground v.1.15,2013-06-20 09:34:00,
2013-06-20 05:35:00,55.9,53.3,30.24,NNW,348,0.0,0.0,91,0.00,,,0.00,Wunderground v.1.15,2013-06-20 09:35:00,
2013-06-20 05:37:00,55.9,53.3,30.24,NNW,348,0.0,0.0,91,0.00,,,0.00,Wunderground v.1.15,2013-06-20 09:37:00,
2013-06-20 05:38:00,55.9,53.3,30.24,NNW,348,0.0,0.0,91,0.00,,,0.00,Wunderground v.1.15,2013-06-20 09:38:00,
2013-06-20 05:39:00,55.9,53.3,30.24,NNW,348,0.0,0.0,91,0.00,,,0.00,Wunderground v.1.15,2013-06-20 09:39:00,
2013-06-20 05:41:00,56.0,53.4,30.24,NNW,348,0.0,0.0,91,0.00,,,0.00,Wunderground v.1.15,2013-06-20 09:41:00,
2013-06-20 05:42:00,56.0,53.4,30.24,NNW,348,0.0,0.0,91,0.00,,,0.00,Wunderground v.1.15,2013-06-20 09:42:00,
2013-06-20 05:43:00,56.0,53.4,30.24,NNW,348,0.0,0.0,91,0.00,,,0.00,Wunderground v.1.15,2013-06-20 09:43:00,
2013-06-20 05:44:00,56.0,53.4,30.24,NNW,348,0.0,0.0,91,0.00,,,0.00,Wunderground v.1.15,2013-06-20 09:44:00,
2013-06-20 05:46:00,56.2,53.6,30.24,NNW,348,0.0,0.0,91,0.00,,,0.00,Wunderground v.1.15,2013-06-20 09:46:00,
2013-06-20 05:47:00,56.2,53.6,30.24,NNW,348,0.0,0.0,91,0.00,,,0.00,Wunderground v.1.15,2013-06-20 09:47:00,
2013-06-20 05:49:00,56.2,53.6,30.24,NNW,348,0.0,0.0,91,0.00,,,0.00,Wunderground v.1.15,2013-06-20 09:49:00,
2013-06-20 05:50:00,56.2,53.6,30.24,NNW,348,0.0,0.0,91,0.00,,,0.00,Wunderground v.1.15,2013-06-20 09:50:00,
2013-06-20 05:51:00,56.2,53.6,30.24,NNW,348,0.0,0.0,91,0.00,,,0.00,Wunderground v.1.15,2013-06-20 09:51:00,
2013-06-20 05:53:00,56.3,53.7,30.24,NNW,348,0.0,0.0,91,0.00,,,0.00,Wunderground v.1.15,2013-06-20 09:53:00,
2013-06-20 05:54:00,56.3,53.7,30.24,NNW,348,0.0,0.0,91,0.00,,,0.00,Wunderground v.1.15,2013-06-20 09:54:00,
2013-06-20 05:55:00,56.3,53.7,30.24,NNW,348,0.0,0.0,91,0.00,,,0.00,Wunderground v.1.15,2013-06-20 09:55:00,
2013-06-20 05:56:00,56.5,54.2,30.24,NNW,344,0.0,1.0,92,0.00,,,0.00,Wunderground v.1.15,2013-06-20 09:56:00,
2013-06-20 05:58:00,56.5,53.9,30.24,NNW,344,0.0,1.0,91,0.00,,,0.00,Wunderground v.1.15,2013-06-20 09:58:00,
2013-06-20 05:59:00,56.6,54.0,30.24,NNW,344,0.0,1.0,91,0.00,,,0.00,Wunderground v.1.15,2013-06-20 09:59:00,
2013-06-20 06:01:00,56.6,54.0,30.24,NNW,344,0.0,0.0,91,0.00,,,0.00,Wunderground v.1.15,2013-06-20 10:01:00,
2013-06-20 06:02:00,56.7,54.1,30.24,NNW,344,0.0,0.0,91,0.00,,,0.00,Wunderground v.1.15,2013-06-20 10:02:00,
2013-06-20 06:03:00,56.7,54.1,30.24,NNW,344,0.0,1.0,91,0.00,,,0.00,Wunderground v.1.15,2013-06-20 10:03:00,
2013-06-20 06:05:00,56.9,54.3,30.24,NNW,344,0.0,1.0,91,0.00,,,0.00,Wunderground v.1.15,2013-06-20 10:05:00,
2013-06-20 06:06:00,56.9,54.3,30.24,NNW,344,0.0,1.0,91,0.00,,,0.00,Wunderground v.1.15,2013-06-20 10:06:00,
2013-06-20 06:08:00,57.0,54.4,30.25,NNW,344,0.0,1.0,91,0.00,,,0.00,Wunderground v.1.15,2013-06-20 10:08:00,
2013-06-20 06:09:00,57.0,54.4,30.25,NNW,344,0.0,1.0,91,0.00,,,0.00,Wunderground v.1.15,2013-06-20 10:09:00,
2013-06-20 06:10:00,57.0,54.4,30.25,NNW,344,0.0,0.0,91,0.00,,,0.00,Wunderground v.1.15,2013-06-20 10:10:00,
2013-06-20 06:11:00,57.0,54.4,30.24,NNW,344,0.0,0.0,91,0.00,,,0.00,Wunderground v.1.15,2013-06-20 10:11:00,
2013-06-20 06:13:00,57.2,54.6,30.25,NNW,344,0.0,0.0,91,0.00,,,0.00,Wunderground v.1.15,2013-06-20 10:13:00,
2013-06-20 06:14:00,57.2,54.6,30.25,NNW,344,0.0,0.0,91,0.00,,,0.00,Wunderground v.1.15,2013-06-20 10:14:00,
2013-06-20 06:15:00,57.3,54.7,30.24,NNW,344,0.0,0.0,91,0.00,,,0.00,Wunderground v.1.15,2013-06-20 10:15:00,
2013-06-20 06:17:00,57.3,54.7,30.24,NNW,344,0.0,0.0,91,0.00,,,0.00,Wunderground v.1.15,2013-06-20 10:17:00,
2013-06-20 06:18:00,57.5,54.9,30.24,NNW,344,0.0,0.0,91,0.00,,,0.00,Wunderground v.1.15,2013-06-20 10:18:00,
2013-06-20 06:20:00,57.5,54.9,30.25,NNW,344,0.0,0.0,91,0.00,,,0.00,Wunderground v.1.15,2013-06-20 10:20:00,
2013-06-20 06:22:00,57.6,55.0,30.24,NNW,344,0.0,0.0,91,0.00,,,0.00,Wunderground v.1.15,2013-06-20 10:22:00,
2013-06-20 06:23:00,57.8,55.2,30.25,NNW,344,0.0,0.0,91,0.00,,,0.00,Wunderground v.1.15,2013-06-20 10:23:00,
2013-06-20 06:25:00,58.0,55.4,30.25,West,269,0.0,1.0,91,0.00,,,0.00,Wunderground v.1.15,2013-06-20 10:25:00,
2013-06-20 06:26:00,58.0,55.4,30.25,West,269,1.0,1.0,91,0.00,,,0.00,Wunderground v.1.15,2013-06-20 10:26:00,
2013-06-20 06:27:00,58.0,55.4,30.25,West,269,0.0,1.0,91,0.00,,,0.00,Wunderground v.1.15,2013-06-20 10:27:00,
2013-06-20 06:28:00,58.1,55.5,30.25,West,269,0.0,1.0,91,0.00,,,0.00,Wunderground v.1.15,2013-06-20 10:28:00,
2013-06-20 06:31:00,58.3,55.7,30.25,West,269,0.0,0.0,91,0.00,,,0.00,Wunderground v.1.15,2013-06-20 10:31:00,
2013-06-20 06:32:00,58.4,55.8,30.25,West,269,0.0,0.0,91,0.00,,,0.00,Wunderground v.1.15,2013-06-20 10:32:00,
2013-06-20 06:33:00,58.6,56.0,30.25,West,269,0.0,1.0,91,0.00,,,0.00,Wunderground v.1.15,2013-06-20 10:33:00,
2013-06-20 06:36:00,58.7,56.1,30.25,West,269,0.0,1.0,91,0.00,,,0.00,Wunderground v.1.15,2013-06-20 10:36:00,
2013-06-20 06:37:00,58.9,56.3,30.25,West,269,0.0,1.0,91,0.00,,,0.00,Wunderground v.1.15,2013-06-20 10:37:00,
2013-06-20 06:39:00,59.0,56.1,30.25,West,269,0.0,1.0,90,0.00,,,0.00,Wunderground v.1.15,2013-06-20 10:39:00,
2013-06-20 06:41:00,59.3,56.4,30.25,West,269,0.0,0.0,90,0.00,,,0.00,Wunderground v.1.15,2013-06-20 10:41:00,
2013-06-20 06:42:00,59.5,56.6,30.25,West,269,0.0,0.0,90,0.00,,,0.00,Wunderground v.1.15,2013-06-20 10:42:00,
2013-06-20 06:44:00,59.8,56.9,30.25,WSW,243,0.0,2.0,90,0.00,,,0.00,Wunderground v.1.15,2013-06-20 10:44:00,
2013-06-20 06:46:00,59.9,57.0,30.25,WSW,243,0.0,2.0,90,0.00,,,0.00,Wunderground v.1.15,2013-06-20 10:46:00,
2013-06-20 06:48:00,60.1,57.2,30.25,WSW,243,0.0,2.0,90,0.00,,,0.00,Wunderground v.1.15,2013-06-20 10:48:00,
2013-06-20 06:49:00,60.4,57.5,30.25,WSW,243,0.0,0.0,90,0.00,,,0.00,Wunderground v.1.15,2013-06-20 10:49:00,
2013-06-20 06:51:00,60.5,57.2,30.25,WSW,238,0.0,1.0,89,0.00,,,0.00,Wunderground v.1.15,2013-06-20 10:51:00,
2013-06-20 06:52:00,60.5,57.2,30.25,WSW,238,0.0,1.0,89,0.00,,,0.00,Wunderground v.1.15,2013-06-20 10:52:00,
2013-06-20 06:53:00,60.7,57.4,30.25,WSW,238,0.0,1.0,89,0.00,,,0.00,Wunderground v.1.15,2013-06-20 10:53:00,
2013-06-20 06:55:00,60.9,57.3,30.25,WSW,238,0.0,1.0,88,0.00,,,0.00,Wunderground v.1.15,2013-06-20 10:55:00,
2013-06-20 06:57:00,61.0,57.4,30.25,WSW,238,0.0,1.0,88,0.00,,,0.00,Wunderground v.1.15,2013-06-20 10:57:00,
2013-06-20 06:58:00,61.0,57.1,30.25,WSW,238,0.0,1.0,87,0.00,,,0.00,Wunderground v.1.15,2013-06-20 10:58:00,
2013-06-20 07:00:00,61.2,57.3,30.25,WSW,238,0.0,0.0,87,0.00,,,0.00,Wunderground v.1.15,2013-06-20 11:00:00,
2013-06-20 07:02:00,61.3,57.1,30.25,WSW,238,0.0,2.0,86,0.00,,,0.00,Wunderground v.1.15,2013-06-20 11:02:00,
2013-06-20 07:04:00,61.5,57.3,30.26,WSW,238,0.0,2.0,86,0.00,,,0.00,Wunderground v.1.15,2013-06-20 11:04:00,
2013-06-20 07:05:00,61.5,57.3,30.25,WSW,238,0.0,2.0,86,0.00,,,0.00,Wunderground v.1.15,2013-06-20 11:05:00,
2013-06-20 07:07:00,61.8,57.2,30.25,WSW,238,0.0,2.0,85,0.00,,,0.00,Wunderground v.1.15,2013-06-20 11:07:00,
2013-06-20 07:09:00,61.8,56.9,30.25,WSW,238,0.0,2.0,84,0.00,,,0.00,Wunderground v.1.15,2013-06-20 11:09:00,
2013-06-20 07:10:00,62.0,57.1,30.25,WSW,238,0.0,0.0,84,0.00,,,0.00,Wunderground v.1.15,2013-06-20 11:10:00,
2013-06-20 07:12:00,62.1,56.9,30.25,WSW,238,0.0,1.0,83,0.00,,,0.00,Wunderground v.1.15,2013-06-20 11:12:00,
2013-06-20 07:14:00,62.4,57.2,30.26,WSW,238,0.0,1.0,83,0.00,,,0.00,Wunderground v.1.15,2013-06-20 11:14:00,
2013-06-20 07:15:00,62.4,56.8,30.26,WSW,238,1.0,1.0,82,0.00,,,0.00,Wunderground v.1.15,2013-06-20 11:15:00,
2013-06-20 07:17:00,62.6,56.7,30.26,WSW,238,0.0,1.0,81,0.00,,,0.00,Wunderground v.1.15,2013-06-20 11:17:00,
2013-06-20 07:18:00,62.6,56.7,30.26,WSW,238,0.0,1.0,81,0.00,,,0.00,Wunderground v.1.15,2013-06-20 11:18:00,
2013-06-20 07:19:00,62.9,56.6,30.26,WSW,238,0.0,1.0,80,0.00,,,0.00,Wunderground v.1.15,2013-06-20 11:19:00,
2013-06-20 07:20:00,63.1,56.8,30.26,WSW,238,0.0,2.0,80,0.00,,,0.00,Wunderground v.1.15,2013-06-20 11:20:00,
2013-06-20 07:22:00,63.2,56.6,30.26,WSW,238,0.0,2.0,79,0.00,,,0.00,Wunderground v.1.15,2013-06-20 11:22:00,
2013-06-20 07:23:00,63.4,56.8,30.26,WSW,238,0.0,2.0,79,0.00,,,0.00,Wunderground v.1.15,2013-06-20 11:23:00,
2013-06-20 07:25:00,63.7,56.7,30.26,WSW,238,0.0,2.0,78,0.00,,,0.00,Wunderground v.1.15,2013-06-20 11:25:00,
2013-06-20 07:26:00,63.9,56.9,30.26,WSW,238,0.0,2.0,78,0.00,,,0.00,Wunderground v.1.15,2013-06-20 11:26:00,
2013-06-20 07:28:00,64.0,56.3,30.26,WSW,238,2.0,3.0,76,0.00,,,0.00,Wunderground v.1.15,2013-06-20 11:28:00,
2013-06-20 07:30:00,64.0,55.5,30.26,WSW,238,0.0,3.0,74,0.00,,,0.00,Wunderground v.1.15,2013-06-20 11:30:00,
2013-06-20 07:31:00,64.2,55.7,30.26,WSW,238,0.0,3.0,74,0.00,,,0.00,Wunderground v.1.15,2013-06-20 11:31:00,
2013-06-20 07:33:00,64.2,55.7,30.26,WSW,238,0.0,3.0,74,0.00,,,0.00,Wunderground v.1.15,2013-06-20 11:33:00,
2013-06-20 07:34:00,64.3,55.8,30.26,WSW,238,1.0,3.0,74,0.00,,,0.00,Wunderground v.1.15,2013-06-20 11:34:00,
2013-06-20 07:35:00,64.3,55.5,30.26,WSW,238,0.0,3.0,73,0.00,,,0.00,Wunderground v.1.15,2013-06-20 11:35:00,
2013-06-20 07:36:00,64.5,55.7,30.26,WSW,238,0.0,3.0,73,0.00,,,0.00,Wunderground v.1.15,2013-06-20 11:36:00,
2013-06-20 07:38:00,64.7,55.8,30.26,WSW,238,0.0,3.0,73,0.00,,,0.00,Wunderground v.1.15,2013-06-20 11:38:00,
2013-06-20 07:39:00,64.8,55.9,30.26,WSW,238,0.0,3.0,73,0.00,,,0.00,Wunderground v.1.15,2013-06-20 11:39:00,
2013-06-20 07:40:00,65.0,56.1,30.26,SW,223,0.0,0.0,73,0.00,,,0.00,Wunderground v.1.15,2013-06-20 11:40:00,
2013-06-20 07:41:00,65.0,56.1,30.26,SW,223,0.0,0.0,73,0.00,,,0.00,Wunderground v.1.15,2013-06-20 11:41:00,
2013-06-20 07:43:00,65.6,56.3,30.26,SW,223,0.0,1.0,72,0.00,,,0.00,Wunderground v.1.15,2013-06-20 11:43:00,
2013-06-20 07:44:00,65.8,56.1,30.26,SW,223,0.0,1.0,71,0.00,,,0.00,Wunderground v.1.15,2013-06-20 11:44:00,
2013-06-20 07:46:00,65.8,55.7,30.26,SW,233,0.0,3.0,70,0.00,,,0.00,Wunderground v.1.15,2013-06-20 11:46:00,
2013-06-20 07:47:00,66.0,55.5,30.26,SW,233,0.0,3.0,69,0.00,,,0.00,Wunderground v.1.15,2013-06-20 11:47:00,
2013-06-20 07:48:00,66.1,55.6,30.26,SW,233,0.0,3.0,69,0.00,,,0.00,Wunderground v.1.15,2013-06-20 11:48:00,
2013-06-20 07:50:00,66.1,55.2,30.26,SW,233,0.0,0.0,68,0.00,,,0.00,Wunderground v.1.15,2013-06-20 11:50:00,
2013-06-20 07:51:00,66.3,55.4,30.26,SW,233,0.0,1.0,68,0.00,,,0.00,Wunderground v.1.15,2013-06-20 11:51:00,
2013-06-20 07:52:00,66.3,55.4,30.26,SW,233,0.0,1.0,68,0.00,,,0.00,Wunderground v.1.15,2013-06-20 11:52:00,
2013-06-20 07:53:00,66.3,55.4,30.27,WSW,238,0.0,1.0,68,0.00,,,0.00,Wunderground v.1.15,2013-06-20 11:53:00,
2013-06-20 07:56:00,66.3,54.6,30.26,WSW,253,2.0,3.0,66,0.00,,,0.00,Wunderground v.1.15,2013-06-20 11:56:00,
2013-06-20 07:57:00,66.3,54.6,30.26,WSW,253,0.0,3.0,66,0.00,,,0.00,Wunderground v.1.15,2013-06-20 11:57:00,
2013-06-20 07:58:00,66.3,54.6,30.26,WSW,253,0.0,3.0,66,0.00,,,0.00,Wunderground v.1.15,2013-06-20 11:58:00,
2013-06-20 07:59:00,66.4,54.7,30.26,WSW,254,0.0,3.0,66,0.00,,,0.00,Wunderground v.1.15,2013-06-20 11:59:00,
2013-06-20 08:01:00,66.4,54.7,30.26,NW,325,0.0,1.0,66,0.00,,,0.00,Wunderground v.1.15,2013-06-20 12:01:00,
2013-06-20 08:02:00,66.4,54.7,30.26,NW,325,0.0,1.0,66,0.00,,,0.00,Wunderground v.1.15,2013-06-20 12:02:00,
2013-06-20 08:03:00,66.6,54.9,30.26,WSW,253,3.0,3.0,66,0.00,,,0.00,Wunderground v.1.15,2013-06-20 12:03:00,
2013-06-20 08:04:00,66.6,54.5,30.26,WSW,238,0.0,3.0,65,0.00,,,0.00,Wunderground v.1.15,2013-06-20 12:04:00,
2013-06-20 08:06:00,66.8,54.2,30.26,NW,321,0.0,3.0,64,0.00,,,0.00,Wunderground v.1.15,2013-06-20 12:06:00,
2013-06-20 08:07:00,66.8,54.2,30.26,NW,321,0.0,3.0,64,0.00,,,0.00,Wunderground v.1.15,2013-06-20 12:07:00,
2013-06-20 08:08:00,66.8,54.2,30.26,NW,321,0.0,3.0,64,0.00,,,0.00,Wunderground v.1.15,2013-06-20 12:08:00,
2013-06-20 08:10:00,66.9,54.3,30.26,NW,321,0.0,1.0,64,0.00,,,0.00,Wunderground v.1.15,2013-06-20 12:10:00,
2013-06-20 08:12:00,66.9,53.9,30.26,NW,321,0.0,3.0,63,0.00,,,0.00,Wunderground v.1.15,2013-06-20 12:12:00,
2013-06-20 08:14:00,66.9,53.9,30.26,SW,224,1.0,4.0,63,0.00,,,0.00,Wunderground v.1.15,2013-06-20 12:14:00,
2013-06-20 08:15:00,66.9,53.5,30.26,SW,220,0.0,4.0,62,0.00,,,0.00,Wunderground v.1.15,2013-06-20 12:15:00,
2013-06-20 08:17:00,67.1,54.1,30.26,SW,224,0.0,4.0,63,0.00,,,0.00,Wunderground v.1.15,2013-06-20 12:17:00,
2013-06-20 08:19:00,67.1,53.2,30.26,SW,230,3.0,5.0,61,0.00,,,0.00,Wunderground v.1.15,2013-06-20 12:19:00,
2013-06-20 08:20:00,67.1,53.2,30.26,WNW,295,1.0,1.0,61,0.00,,,0.00,Wunderground v.1.15,2013-06-20 12:20:00,
2013-06-20 08:22:00,67.3,53.8,30.26,West,275,3.0,3.0,62,0.00,,,0.00,Wunderground v.1.15,2013-06-20 12:22:00,
2013-06-20 08:24:00,67.3,53.4,30.26,West,275,0.0,3.0,61,0.00,,,0.00,Wunderground v.1.15,2013-06-20 12:24:00,
2013-06-20 08:25:00,67.4,54.4,30.26,West,275,0.0,3.0,63,0.00,,,0.00,Wunderground v.1.15,2013-06-20 12:25:00,
2013-06-20 08:27:00,67.6,54.1,30.26,West,275,0.0,3.0,62,0.00,,,0.00,Wunderground v.1.15,2013-06-20 12:27:00,
2013-06-20 08:28:00,67.6,53.2,30.26,West,275,2.0,3.0,60,0.00,,,0.00,Wunderground v.1.15,2013-06-20 12:28:00,
2013-06-20 08:29:00,67.8,53.4,30.26,West,275,1.0,3.0,60,0.00,,,0.00,Wunderground v.1.15,2013-06-20 12:29:00,
2013-06-20 08:30:00,67.8,52.9,30.26,West,277,0.0,2.0,59,0.00,,,0.00,Wunderground v.1.15,2013-06-20 12:30:00,
2013-06-20 08:32:00,67.9,53.5,30.26,West,277,0.0,2.0,60,0.00,,,0.00,Wunderground v.1.15,2013-06-20 12:32:00,
2013-06-20 08:33:00,68.1,53.2,30.26,West,277,1.0,2.0,59,0.00,,,0.00,Wunderground v.1.15,2013-06-20 12:33:00,
2013-06-20 08:35:00,68.1,52.3,30.26,West,270,2.0,2.0,57,0.00,,,0.00,Wunderground v.1.15,2013-06-20 12:35:00,
2013-06-20 08:36:00,68.3,52.5,30.27,West,271,2.0,2.0,57,0.00,,,0.00,Wunderground v.1.15,2013-06-20 12:36:00,
2013-06-20 08:37:00,68.3,52.0,30.27,SSE,165,0.0,4.0,56,0.00,,,0.00,Wunderground v.1.15,2013-06-20 12:37:00,
2013-06-20 08:39:00,68.4,51.6,30.27,SSE,167,0.0,4.0,55,0.00,,,0.00,Wunderground v.1.15,2013-06-20 12:39:00,
2013-06-20 08:40:00,68.4,51.6,30.27,SSE,167,0.0,0.0,55,0.00,,,0.00,Wunderground v.1.15,2013-06-20 12:40:00,
2013-06-20 08:41:00,68.4,51.6,30.27,South,187,0.0,2.0,55,0.00,,,0.00,Wunderground v.1.15,2013-06-20 12:41:00,
2013-06-20 08:42:00,68.4,51.1,30.27,NW,310,2.0,3.0,54,0.00,,,0.00,Wunderground v.1.15,2013-06-20 12:42:00,
2013-06-20 08:45:00,68.6,50.8,30.27,NNW,329,1.0,4.0,53,0.00,,,0.00,Wunderground v.1.15,2013-06-20 12:45:00,
2013-06-20 08:46:00,68.8,50.5,30.27,NW,322,1.0,4.0,52,0.00,,,0.00,Wunderground v.1.15,2013-06-20 12:46:00,
2013-06-20 08:47:00,68.8,51.0,30.27,NW,323,0.0,4.0,53,0.00,,,0.00,Wunderground v.1.15,2013-06-20 12:47:00,
2013-06-20 08:50:00,69.1,51.8,30.27,NW,323,0.0,1.0,54,0.00,,,0.00,Wunderground v.1.15,2013-06-20 12:50:00,
2013-06-20 08:52:00,69.3,51.4,30.27,NW,323,0.0,3.0,53,0.00,,,0.00,Wunderground v.1.15,2013-06-20 12:52:00,
2013-06-20 08:55:00,69.4,51.0,30.27,SSW,196,0.0,3.0,52,0.00,,,0.00,Wunderground v.1.15,2013-06-20 12:55:00,
2013-06-20 08:56:00,69.4,51.5,30.27,SSW,196,0.0,3.0,53,0.00,,,0.00,Wunderground v.1.15,2013-06-20 12:56:00,
2013-06-20 08:57:00,69.4,51.0,30.27,SW,214,1.0,3.0,52,0.00,,,0.00,Wunderground v.1.15,2013-06-20 12:57:00,
2013-06-20 08:58:00,69.4,50.5,30.27,SW,214,2.0,3.0,51,0.00,,,0.00,Wunderground v.1.15,2013-06-20 12:58:00,
2013-06-20 09:00:00,69.6,50.7,30.27,South,184,0.0,2.0,51,0.00,,,0.00,Wunderground v.1.15,2013-06-20 13:00:00,
2013-06-20 09:01:00,69.6,50.7,30.27,SE,141,1.0,2.0,51,0.00,,,0.00,Wunderground v.1.15,2013-06-20 13:01:00,
2013-06-20 09:02:00,69.8,50.9,30.27,ESE,109,0.0,2.0,51,0.00,,,0.00,Wunderground v.1.15,2013-06-20 13:02:00,
2013-06-20 09:03:00,69.8,50.9,30.27,SW,232,1.0,2.0,51,0.00,,,0.00,Wunderground v.1.15,2013-06-20 13:03:00,
2013-06-20 09:05:00,69.9,50.9,30.27,WSW,245,0.0,4.0,51,0.00,,,0.00,Wunderground v.1.15,2013-06-20 13:05:00,
2013-06-20 09:06:00,69.9,50.9,30.27,WSW,244,1.0,4.0,51,0.00,,,0.00,Wunderground v.1.15,2013-06-20 13:06:00,
2013-06-20 09:07:00,70.3,51.3,30.27,South,178,1.0,4.0,51,0.00,,,0.00,Wunderground v.1.15,2013-06-20 13:07:00,
2013-06-20 09:08:00,70.3,51.3,30.27,SSE,150,0.0,4.0,51,0.00,,,0.00,Wunderground v.1.15,2013-06-20 13:08:00,
2013-06-20 09:11:00,70.4,51.4,30.27,SSW,193,2.0,3.0,51,0.00,,,0.00,Wunderground v.1.15,2013-06-20 13:11:00,
2013-06-20 09:12:00,70.6,51.6,30.27,SSW,211,2.0,3.0,51,0.00,,,0.00,Wunderground v.1.15,2013-06-20 13:12:00,
2013-06-20 09:13:00,70.6,51.1,30.27,SSW,211,1.0,3.0,50,0.00,,,0.00,Wunderground v.1.15,2013-06-20 13:13:00,
2013-06-20 09:16:00,70.8,51.8,30.27,SSW,211,1.0,3.0,51,0.00,,,0.00,Wunderground v.1.15,2013-06-20 13:16:00,
2013-06-20 09:17:00,70.9,52.4,30.27,ESE,117,0.0,3.0,52,0.00,,,0.00,Wunderground v.1.15,2013-06-20 13:17:00,
2013-06-20 09:18:00,70.9,51.3,30.27,SW,229,2.0,4.0,50,0.00,,,0.00,Wunderground v.1.15,2013-06-20 13:18:00,
2013-06-20 09:21:00,70.9,51.3,30.27,West,265,0.0,4.0,50,0.00,,,0.00,Wunderground v.1.15,2013-06-20 13:21:00,
2013-06-20 09:22:00,71.1,52.0,30.27,West,265,0.0,4.0,51,0.00,,,0.00,Wunderground v.1.15,2013-06-20 13:22:00,
2013-06-20 09:24:00,71.1,52.0,30.27,West,265,1.0,4.0,51,0.00,,,0.00,Wunderground v.1.15,2013-06-20 13:24:00,
2013-06-20 09:27:00,71.1,52.0,30.27,WSW,242,3.0,4.0,51,0.00,,,0.00,Wunderground v.1.15,2013-06-20 13:27:00,
2013-06-20 09:29:00,71.1,52.0,30.27,SW,236,0.0,4.0,51,0.00,,,0.00,Wunderground v.1.15,2013-06-20 13:29:00,
2013-06-20 09:32:00,71.3,51.7,30.27,WSW,240,0.0,2.0,50,0.00,,,0.00,Wunderground v.1.15,2013-06-20 13:32:00,
2013-06-20 09:33:00,71.6,53.6,30.27,WSW,251,2.0,2.0,53,0.00,,,0.00,Wunderground v.1.15,2013-06-20 13:33:00,
2013-06-20 09:34:00,71.8,52.2,30.27,WSW,251,0.0,2.0,50,0.00,,,0.00,Wunderground v.1.15,2013-06-20 13:34:00,
2013-06-20 09:35:00,71.8,52.2,30.27,WSW,251,0.0,2.0,50,0.00,,,0.00,Wunderground v.1.15,2013-06-20 13:35:00,
2013-06-20 09:37:00,72.1,52.4,30.27,WSW,245,1.0,4.0,50,0.00,,,0.00,Wunderground v.1.15,2013-06-20 13:37:00,
2013-06-20 09:38:00,72.1,51.3,30.27,WSW,245,0.0,4.0,48,0.00,,,0.00,Wunderground v.1.15,2013-06-20 13:38:00,
2013-06-20 09:39:00,72.1,52.4,30.27,WSW,245,0.0,4.0,50,0.00,,,0.00,Wunderground v.1.15,2013-06-20 13:39:00,
2013-06-20 09:40:00,72.3,52.6,30.27,WSW,245,0.0,0.0,50,0.00,,,0.00,Wunderground v.1.15,2013-06-20 13:40:00,
2013-06-20 09:41:00,72.3,52.1,30.27,WSW,246,2.0,2.0,49,0.00,,,0.00,Wunderground v.1.15,2013-06-20 13:41:00,
2013-06-20 09:43:00,72.7,51.9,30.27,WSW,240,0.0,2.0,48,0.00,,,0.00,Wunderground v.1.15,2013-06-20 13:43:00,
2013-06-20 09:44:00,72.8,53.1,30.27,WSW,240,0.0,2.0,50,0.00,,,0.00,Wunderground v.1.15,2013-06-20 13:44:00,
2013-06-20 09:45:00,73.0,52.1,30.27,SSE,161,2.0,2.0,48,0.00,,,0.00,Wunderground v.1.15,2013-06-20 13:45:00,
2013-06-20 09:46:00,73.0,52.1,30.27,SSE,161,0.0,2.0,48,0.00,,,0.00,Wunderground v.1.15,2013-06-20 13:46:00,
2013-06-20 09:48:00,73.3,51.8,30.27,SSE,162,0.0,2.0,47,0.00,,,0.00,Wunderground v.1.15,2013-06-20 13:48:00,
2013-06-20 09:49:00,73.3,51.8,30.27,SSE,162,2.0,2.0,47,0.00,,,0.00,Wunderground v.1.15,2013-06-20 13:49:00,
2013-06-20 09:51:00,73.2,50.6,30.27,SW,217,0.0,3.0,45,0.00,,,0.00,Wunderground v.1.15,2013-06-20 13:51:00,
2013-06-20 09:54:00,73.2,51.2,30.27,SW,221,0.0,3.0,46,0.00,,,0.00,Wunderground v.1.15,2013-06-20 13:54:00,
2013-06-20 09:56:00,73.2,51.2,30.27,NW,321,0.0,6.0,46,0.00,,,0.00,Wunderground v.1.15,2013-06-20 13:56:00,
2013-06-20 09:59:00,73.0,52.1,30.27,NW,306,5.0,6.0,48,0.00,,,0.00,Wunderground v.1.15,2013-06-20 13:59:00,
2013-06-20 10:00:00,73.0,52.1,30.27,NW,306,3.0,3.0,48,0.00,,,0.00,Wunderground v.1.15,2013-06-20 14:00:00,
2013-06-20 10:02:00,73.0,52.1,30.27,NW,321,0.0,3.0,48,0.00,,,0.00,Wunderground v.1.15,2013-06-20 14:02:00,
2013-06-20 10:04:00,73.5,52.6,30.27,SW,231,0.0,3.0,48,0.00,,,0.00,Wunderground v.1.15,2013-06-20 14:04:00,
2013-06-20 10:05:00,73.5,52.6,30.27,SW,231,0.0,3.0,48,0.00,,,0.00,Wunderground v.1.15,2013-06-20 14:05:00,
2013-06-20 10:07:00,73.9,52.4,30.27,SW,228,0.0,3.0,47,0.00,,,0.00,Wunderground v.1.15,2013-06-20 14:07:00,
2013-06-20 10:10:00,74.2,52.1,30.27,WSW,254,3.0,3.0,46,0.00,,,0.00,Wunderground v.1.15,2013-06-20 14:10:00,
2013-06-20 10:12:00,74.4,51.1,30.27,WNW,290,2.0,5.0,44,0.00,,,0.00,Wunderground v.1.15,2013-06-20 14:12:00,
2013-06-20 10:13:00,74.4,52.3,30.27,WNW,282,0.0,5.0,46,0.00,,,0.00,Wunderground v.1.15,2013-06-20 14:13:00,
2013-06-20 10:15:00,74.4,51.7,30.27,NW,319,1.0,5.0,45,0.00,,,0.00,Wunderground v.1.15,2013-06-20 14:15:00,
2013-06-20 10:17:00,74.6,52.4,30.27,West,271,3.0,5.0,46,0.00,,,0.00,Wunderground v.1.15,2013-06-20 14:17:00,
2013-06-20 10:19:00,74.6,51.9,30.27,West,270,0.0,5.0,45,0.00,,,0.00,Wunderground v.1.15,2013-06-20 14:19:00,
2013-06-20 10:20:00,74.6,52.4,30.27,ESE,115,0.0,4.0,46,0.00,,,0.00,Wunderground v.1.15,2013-06-20 14:20:00,
2013-06-20 10:22:00,74.7,51.9,30.27,NE,44,0.0,4.0,45,0.00,,,0.00,Wunderground v.1.15,2013-06-20 14:22:00,
2013-06-20 10:24:00,74.7,51.3,30.27,NE,39,0.0,4.0,44,0.00,,,0.00,Wunderground v.1.15,2013-06-20 14:24:00,
2013-06-20 10:25:00,74.7,52.5,30.27,NE,39,1.0,4.0,46,0.00,,,0.00,Wunderground v.1.15,2013-06-20 14:25:00,
2013-06-20 10:26:00,74.7,51.3,30.27,ESE,102,2.0,4.0,44,0.00,,,0.00,Wunderground v.1.15,2013-06-20 14:26:00,
2013-06-20 10:27:00,74.7,51.3,30.27,ESE,102,0.0,4.0,44,0.00,,,0.00,Wunderground v.1.15,2013-06-20 14:27:00,
2013-06-20 10:30:00,75.1,52.9,30.27,SSW,195,0.0,2.0,46,0.00,,,0.00,Wunderground v.1.15,2013-06-20 14:30:00,
2013-06-20 10:32:00,75.1,51.7,30.27,SSW,194,0.0,2.0,44,0.00,,,0.00,Wunderground v.1.15,2013-06-20 14:32:00,
2013-06-20 10:36:00,75.4,52.0,30.27,West,267,1.0,2.0,44,0.00,,,0.00,Wunderground v.1.15,2013-06-20 14:36:00,
2013-06-20 10:37:00,75.4,52.0,30.28,North,5,0.0,2.0,44,0.00,,,0.00,Wunderground v.1.15,2013-06-20 14:37:00,
2013-06-20 10:41:00,75.6,52.1,30.28,NNE,22,0.0,1.0,44,0.00,,,0.00,Wunderground v.1.15,2013-06-20 14:41:00,
2013-06-20 10:42:00,75.8,52.9,30.28,NNE,22,0.0,1.0,45,0.00,,,0.00,Wunderground v.1.15,2013-06-20 14:42:00,
2013-06-20 10:43:00,75.8,52.9,30.28,NE,35,0.0,1.0,45,0.00,,,0.00,Wunderground v.1.15,2013-06-20 14:43:00,
2013-06-20 10:46:00,76.1,53.2,30.28,NE,34,0.0,1.0,45,0.00,,,0.00,Wunderground v.1.15,2013-06-20 14:46:00,
2013-06-20 10:48:00,76.0,51.2,30.28,NE,36,1.0,3.0,42,0.00,,,0.00,Wunderground v.1.15,2013-06-20 14:48:00,
2013-06-20 10:49:00,75.8,52.3,30.28,NE,37,0.0,3.0,44,0.00,,,0.00,Wunderground v.1.15,2013-06-20 14:49:00,
2013-06-20 10:51:00,76.1,53.8,30.28,NE,39,1.0,2.0,46,0.00,,,0.00,Wunderground v.1.15,2013-06-20 14:51:00,
2013-06-20 10:53:00,76.1,51.3,30.28,South,190,0.0,3.0,42,0.00,,,0.00,Wunderground v.1.15,2013-06-20 14:53:00,
2013-06-20 10:54:00,76.1,51.3,30.28,SSW,198,0.0,3.0,42,0.00,,,0.00,Wunderground v.1.15,2013-06-20 14:54:00,
2013-06-20 10:57:00,76.3,53.4,30.28,SSW,198,1.0,3.0,45,0.00,,,0.00,Wunderground v.1.15,2013-06-20 14:57:00,
2013-06-20 10:58:00,76.5,51.7,30.28,SW,219,0.0,3.0,42,0.00,,,0.00,Wunderground v.1.15,2013-06-20 14:58:00,
2013-06-20 10:59:00,76.7,53.8,30.28,SSE,153,2.0,5.0,45,0.00,,,0.00,Wunderground v.1.15,2013-06-20 14:59:00,
2013-06-20 11:02:00,76.8,53.2,30.28,SW,229,6.0,6.0,44,0.00,,,0.00,Wunderground v.1.15,2013-06-20 15:02:00,
2013-06-20 11:04:00,76.7,53.8,30.28,SSE,149,3.0,6.0,45,0.00,,,0.00,Wunderground v.1.15,2013-06-20 15:04:00,
2013-06-20 11:05:00,76.7,51.9,30.28,SSE,149,1.0,6.0,42,0.00,,,0.00,Wunderground v.1.15,2013-06-20 15:05:00,
2013-06-20 11:07:00,76.5,53.0,30.28,SSE,157,0.0,6.0,44,0.00,,,0.00,Wunderground v.1.15,2013-06-20 15:07:00,
2013-06-20 11:09:00,76.7,53.8,30.28,SSE,157,0.0,1.0,45,0.00,,,0.00,Wunderground v.1.15,2013-06-20 15:09:00,
2013-06-20 11:10:00,76.8,53.8,30.28,WSW,255,1.0,2.0,45,0.00,,,0.00,Wunderground v.1.15,2013-06-20 15:10:00,
2013-06-20 11:12:00,76.8,52.0,30.28,WSW,254,0.0,2.0,42,0.00,,,0.00,Wunderground v.1.15,2013-06-20 15:12:00,
2013-06-20 11:13:00,76.8,52.6,30.28,WSW,254,0.0,2.0,43,0.00,,,0.00,Wunderground v.1.15,2013-06-20 15:13:00,
2013-06-20 11:16:00,77.0,52.1,30.28,SSE,166,0.0,4.0,42,0.00,,,0.00,Wunderground v.1.15,2013-06-20 15:16:00,
2013-06-20 11:17:00,77.2,53.0,30.28,SSE,167,0.0,4.0,43,0.00,,,0.00,Wunderground v.1.15,2013-06-20 15:17:00,
2013-06-20 11:18:00,77.4,53.1,30.28,SSE,167,0.0,4.0,43,0.00,,,0.00,Wunderground v.1.15,2013-06-20 15:18:00,
2013-06-20 11:19:00,77.4,52.5,30.28,SSE,167,0.0,4.0,42,0.00,,,0.00,Wunderground v.1.15,2013-06-20 15:19:00,
2013-06-20 11:21:00,77.7,54.0,30.28,SSE,167,0.0,3.0,44,0.00,,,0.00,Wunderground v.1.15,2013-06-20 15:21:00,
2013-06-20 11:22:00,77.7,54.7,30.28,SSE,167,1.0,3.0,45,0.00,,,0.00,Wunderground v.1.15,2013-06-20 15:22:00,
2013-06-20 11:24:00,77.7,54.0,30.28,SSE,150,0.0,5.0,44,0.00,,,0.00,Wunderground v.1.15,2013-06-20 15:24:00,
2013-06-20 11:26:00,77.9,53.6,30.28,South,171,0.0,5.0,43,0.00,,,0.00,Wunderground v.1.15,2013-06-20 15:26:00,
2013-06-20 11:27:00,78.1,55.6,30.28,South,171,0.0,5.0,46,0.00,,,0.00,Wunderground v.1.15,2013-06-20 15:27:00,
2013-06-20 11:29:00,78.3,55.8,30.28,South,171,1.0,5.0,46,0.00,,,0.00,Wunderground v.1.15,2013-06-20 15:29:00,
2013-06-20 11:31:00,77.9,53.6,30.28,South,170,0.0,2.0,43,0.00,,,0.00,Wunderground v.1.15,2013-06-20 15:31:00,
2013-06-20 11:33:00,77.9,55.5,30.28,South,169,0.0,2.0,46,0.00,,,0.00,Wunderground v.1.15,2013-06-20 15:33:00,
2013-06-20 11:34:00,77.9,53.0,30.28,SSW,196,3.0,4.0,42,0.00,,,0.00,Wunderground v.1.15,2013-06-20 15:34:00,
2013-06-20 11:35:00,77.7,53.4,30.28,NW,310,2.0,5.0,43,0.00,,,0.00,Wunderground v.1.15,2013-06-20 15:35:00,
2013-06-20 11:36:00,77.7,54.0,30.28,West,274,2.0,5.0,44,0.00,,,0.00,Wunderground v.1.15,2013-06-20 15:36:00,
2013-06-20 11:38:00,77.7,54.0,30.28,West,273,0.0,5.0,44,0.00,,,0.00,Wunderground v.1.15,2013-06-20 15:38:00,
2013-06-20 11:39:00,77.7,52.8,30.28,West,273,0.0,5.0,42,0.00,,,0.00,Wunderground v.1.15,2013-06-20 15:39:00,
2013-06-20 11:41:00,77.9,54.2,30.28,WNW,300,0.0,2.0,44,0.00,,,0.00,Wunderground v.1.15,2013-06-20 15:41:00,
2013-06-20 11:42:00,78.1,55.6,30.28,WNW,299,2.0,2.0,46,0.00,,,0.00,Wunderground v.1.15,2013-06-20 15:42:00,
2013-06-20 11:43:00,77.9,55.5,30.28,West,269,3.0,4.0,46,0.00,,,0.00,Wunderground v.1.15,2013-06-20 15:43:00,
2013-06-20 11:44:00,77.9,56.6,30.28,West,267,1.0,4.0,48,0.00,,,0.00,Wunderground v.1.15,2013-06-20 15:44:00,
2013-06-20 11:46:00,77.9,58.3,30.28,West,267,1.0,4.0,51,0.00,,,0.00,Wunderground v.1.15,2013-06-20 15:46:00,
2013-06-20 11:47:00,77.9,57.8,30.28,SSE,168,2.0,4.0,50,0.00,,,0.00,Wunderground v.1.15,2013-06-20 15:47:00,
2013-06-20 11:48:00,77.9,56.6,30.28,SE,145,0.0,4.0,48,0.00,,,0.00,Wunderground v.1.15,2013-06-20 15:48:00,
2013-06-20 11:50:00,77.9,57.2,30.28,SE,137,3.0,3.0,49,0.00,,,0.00,Wunderground v.1.15,2013-06-20 15:50:00,
2013-06-20 11:51:00,77.4,56.7,30.28,SE,145,1.0,4.0,49,0.00,,,0.00,Wunderground v.1.15,2013-06-20 15:51:00,
2013-06-20 11:52:00,77.4,57.9,30.28,ESE,106,5.0,5.0,51,0.00,,,0.00,Wunderground v.1.15,2013-06-20 15:52:00,
2013-06-20 11:54:00,77.4,56.7,30.28,SSE,157,0.0,5.0,49,0.00,,,0.00,Wunderground v.1.15,2013-06-20 15:54:00,
2013-06-20 11:55:00,77.6,56.9,30.28,SE,145,3.0,5.0,49,0.00,,,0.00,Wunderground v.1.15,2013-06-20 15:55:00,
2013-06-20 11:56:00,77.4,57.3,30.28,SE,146,3.0,5.0,50,0.00,,,0.00,Wunderground v.1.15,2013-06-20 15:56:00,
2013-06-20 11:57:00,77.0,56.9,30.28,SE,146,1.0,5.0,50,0.00,,,0.00,Wunderground v.1.15,2013-06-20 15:57:00,
2013-06-20 11:59:00,77.0,58.0,30.28,SE,146,0.0,5.0,52,0.00,,,0.00,Wunderground v.1.15,2013-06-20 15:59:00,
2013-06-20 12:00:00,77.2,57.7,30.28,SE,146,0.0,1.0,51,0.00,,,0.00,Wunderground v.1.15,2013-06-20 16:00:00,
2013-06-20 12:01:00,77.2,58.2,30.28,SE,145,1.0,3.0,52,0.00,,,0.00,Wunderground v.1.15,2013-06-20 16:01:00,
2013-06-20 12:03:00,77.0,57.5,30.28,SE,145,0.0,3.0,51,0.00,,,0.00,Wunderground v.1.15,2013-06-20 16:03:00,
2013-06-20 12:04:00,77.0,57.5,30.28,SE,145,3.0,4.0,51,0.00,,,0.00,Wunderground v.1.15,2013-06-20 16:04:00,
2013-06-20 12:05:00,76.8,57.3,30.28,SE,140,2.0,4.0,51,0.00,,,0.00,Wunderground v.1.15,2013-06-20 16:05:00,
2013-06-20 12:07:00,76.5,57.6,30.28,ESE,105,1.0,4.0,52,0.00,,,0.00,Wunderground v.1.15,2013-06-20 16:07:00,
2013-06-20 12:08:00,76.5,58.1,30.28,ESE,106,0.0,4.0,53,0.00,,,0.00,Wunderground v.1.15,2013-06-20 16:08:00,
2013-06-20 12:09:00,76.7,58.3,30.28,ESE,106,0.0,4.0,53,0.00,,,0.00,Wunderground v.1.15,2013-06-20 16:09:00,
2013-06-20 12:11:00,76.7,56.7,30.28,South,180,0.0,4.0,50,0.00,,,0.00,Wunderground v.1.15,2013-06-20 16:11:00,
2013-06-20 12:12:00,76.8,56.8,30.28,South,180,0.0,4.0,50,0.00,,,0.00,Wunderground v.1.15,2013-06-20 16:12:00,
2013-06-20 12:14:00,77.0,57.5,30.28,South,180,1.0,4.0,51,0.00,,,0.00,Wunderground v.1.15,2013-06-20 16:14:00,
2013-06-20 12:15:00,77.2,58.2,30.28,SSE,159,3.0,5.0,52,0.00,,,0.00,Wunderground v.1.15,2013-06-20 16:15:00,
2013-06-20 12:16:00,77.2,57.7,30.28,South,180,3.0,5.0,51,0.00,,,0.00,Wunderground v.1.15,2013-06-20 16:16:00,
2013-06-20 12:17:00,77.2,58.2,30.28,SE,130,0.0,5.0,52,0.00,,,0.00,Wunderground v.1.15,2013-06-20 16:17:00,
2013-06-20 12:19:00,77.4,58.4,30.28,South,175,0.0,5.0,52,0.00,,,0.00,Wunderground v.1.15,2013-06-20 16:19:00,
2013-06-20 12:21:00,77.4,58.9,30.28,South,175,0.0,1.0,53,0.00,,,0.00,Wunderground v.1.15,2013-06-20 16:21:00,
2013-06-20 12:23:00,77.9,59.4,30.28,SSE,157,3.0,3.0,53,0.00,,,0.00,Wunderground v.1.15,2013-06-20 16:23:00,
2013-06-20 12:24:00,77.9,57.8,30.28,SSW,193,3.0,4.0,50,0.00,,,0.00,Wunderground v.1.15,2013-06-20 16:24:00,
2013-06-20 12:26:00,77.6,57.5,30.28,East,84,3.0,5.0,50,0.00,,,0.00,Wunderground v.1.15,2013-06-20 16:26:00,
2013-06-20 12:28:00,76.8,57.8,30.28,ENE,71,4.0,5.0,52,0.00,,,0.00,Wunderground v.1.15,2013-06-20 16:28:00,
2013-06-20 12:29:00,76.3,57.4,30.28,ESE,120,3.0,7.0,52,0.00,,,0.00,Wunderground v.1.15,2013-06-20 16:29:00,
2013-06-20 12:30:00,76.3,57.4,30.28,ESE,120,2.0,2.0,52,0.00,,,0.00,Wunderground v.1.15,2013-06-20 16:30:00,
2013-06-20 12:32:00,75.6,57.3,30.28,ESE,113,3.0,6.0,53,0.00,,,0.00,Wunderground v.1.15,2013-06-20 16:32:00,
2013-06-20 12:33:00,75.3,56.5,30.28,SSE,151,2.0,6.0,52,0.00,,,0.00,Wunderground v.1.15,2013-06-20 16:33:00,
2013-06-20 12:35:00,75.3,57.0,30.28,SE,127,2.0,6.0,53,0.00,,,0.00,Wunderground v.1.15,2013-06-20 16:35:00,
2013-06-20 12:36:00,75.3,56.5,30.28,SE,129,5.0,6.0,52,0.00,,,0.00,Wunderground v.1.15,2013-06-20 16:36:00,
2013-06-20 12:37:00,75.4,57.6,30.28,SE,129,0.0,6.0,54,0.00,,,0.00,Wunderground v.1.15,2013-06-20 16:37:00,
2013-06-20 12:38:00,75.8,58.0,30.28,SE,128,0.0,6.0,54,0.00,,,0.00,Wunderground v.1.15,2013-06-20 16:38:00,
2013-06-20 12:39:00,75.8,58.0,30.28,SE,128,2.0,6.0,54,0.00,,,0.00,Wunderground v.1.15,2013-06-20 16:39:00,
2013-06-20 12:40:00,76.0,58.2,30.28,SE,128,0.0,1.0,54,0.00,,,0.00,Wunderground v.1.15,2013-06-20 16:40:00,
2013-06-20 12:41:00,76.3,58.4,30.28,SE,128,2.0,4.0,54,0.00,,,0.00,Wunderground v.1.15,2013-06-20 16:41:00,
2013-06-20 12:43:00,76.5,57.6,30.28,SSE,157,3.0,10.0,52,0.00,,,0.00,Wunderground v.1.15,2013-06-20 16:43:00,
2013-06-20 12:44:00,76.5,57.0,30.28,WSW,254,0.0,10.0,51,0.00,,,0.00,Wunderground v.1.15,2013-06-20 16:44:00,
2013-06-20 12:45:00,76.5,57.0,30.28,South,180,2.0,10.0,51,0.00,,,0.00,Wunderground v.1.15,2013-06-20 16:45:00,
2013-06-20 12:48:00,77.0,56.9,30.28,South,184,3.0,10.0,50,0.00,,,0.00,Wunderground v.1.15,2013-06-20 16:48:00,
2013-06-20 12:49:00,77.0,56.9,30.28,SSE,159,1.0,10.0,50,0.00,,,0.00,Wunderground v.1.15,2013-06-20 16:49:00,
2013-06-20 12:50:00,76.8,56.2,30.28,South,181,3.0,3.0,49,0.00,,,0.00,Wunderground v.1.15,2013-06-20 16:50:00,
2013-06-20 12:51:00,76.8,56.2,30.28,SE,146,3.0,5.0,49,0.00,,,0.00,Wunderground v.1.15,2013-06-20 16:51:00,
2013-06-20 12:54:00,76.8,56.8,30.28,SSE,157,0.0,7.0,50,0.00,,,0.00,Wunderground v.1.15,2013-06-20 16:54:00,
2013-06-20 12:55:00,77.0,56.4,30.28,SSE,153,0.0,7.0,49,0.00,,,0.00,Wunderground v.1.15,2013-06-20 16:55:00,
2013-06-20 12:56:00,77.2,56.6,30.28,SSE,153,2.0,7.0,49,0.00,,,0.00,Wunderground v.1.15,2013-06-20 16:56:00,
2013-06-20 12:59:00,77.6,56.4,30.28,SE,128,0.0,7.0,48,0.00,,,0.00,Wunderground v.1.15,2013-06-20 16:59:00,
2013-06-20 13:00:00,77.7,56.4,30.28,SE,128,1.0,1.0,48,0.00,,,0.00,Wunderground v.1.15,2013-06-20 17:00:00,
2013-06-20 13:01:00,77.7,57.0,30.28,SE,134,1.0,3.0,49,0.00,,,0.00,Wunderground v.1.15,2013-06-20 17:01:00,
2013-06-20 13:04:00,77.7,56.4,30.28,ESE,121,2.0,4.0,48,0.00,,,0.00,Wunderground v.1.15,2013-06-20 17:04:00,
2013-06-20 13:05:00,77.6,55.2,30.28,SSE,167,1.0,6.0,46,0.00,,,0.00,Wunderground v.1.15,2013-06-20 17:05:00,
2013-06-20 13:06:00,77.6,55.2,30.28,SSE,167,0.0,6.0,46,0.00,,,0.00,Wunderground v.1.15,2013-06-20 17:06:00,
2013-06-20 13:09:00,77.6,54.6,30.28,South,184,0.0,6.0,45,0.00,,,0.00,Wunderground v.1.15,2013-06-20 17:09:00,
2013-06-20 13:10:00,77.7,55.3,30.28,SSE,159,5.0,5.0,46,0.00,,,0.00,Wunderground v.1.15,2013-06-20 17:10:00,
2013-06-20 13:11:00,77.7,54.7,30.28,SSE,167,0.0,5.0,45,0.00,,,0.00,Wunderground v.1.15,2013-06-20 17:11:00,
2013-06-20 13:15:00,78.1,55.6,30.28,SSE,153,0.0,6.0,46,0.00,,,0.00,Wunderground v.1.15,2013-06-20 17:15:00,
2013-06-20 13:16:00,78.1,54.4,30.27,SSE,157,1.0,6.0,44,0.00,,,0.00,Wunderground v.1.15,2013-06-20 17:16:00,
2013-06-20 13:17:00,78.1,53.8,30.27,East,91,1.0,6.0,43,0.00,,,0.00,Wunderground v.1.15,2013-06-20 17:17:00,
2013-06-20 13:20:00,77.0,54.6,30.27,South,186,4.0,4.0,46,0.00,,,0.00,Wunderground v.1.15,2013-06-20 17:20:00,
2013-06-20 13:21:00,77.0,54.0,30.27,South,180,1.0,4.0,45,0.00,,,0.00,Wunderground v.1.15,2013-06-20 17:21:00,
2013-06-20 13:22:00,77.0,54.6,30.27,SSE,163,1.0,4.0,46,0.00,,,0.00,Wunderground v.1.15,2013-06-20 17:22:00,
2013-06-20 13:26:00,77.0,53.4,30.27,ESE,107,4.0,9.0,44,0.00,,,0.00,Wunderground v.1.15,2013-06-20 17:26:00,
2013-06-20 13:27:00,76.8,53.2,30.27,ESE,109,1.0,9.0,44,0.00,,,0.00,Wunderground v.1.15,2013-06-20 17:27:00,
2013-06-20 13:28:00,76.8,53.8,30.27,SE,130,4.0,9.0,45,0.00,,,0.00,Wunderground v.1.15,2013-06-20 17:28:00,
2013-06-20 13:31:00,77.0,53.4,30.27,SE,135,2.0,4.0,44,0.00,,,0.00,Wunderground v.1.15,2013-06-20 17:31:00,
2013-06-20 13:33:00,76.8,54.5,30.27,SSE,163,0.0,6.0,46,0.00,,,0.00,Wunderground v.1.15,2013-06-20 17:33:00,
2013-06-20 13:36:00,76.8,53.8,30.27,South,170,0.0,6.0,45,0.00,,,0.00,Wunderground v.1.15,2013-06-20 17:36:00,
2013-06-20 13:37:00,77.0,54.0,30.27,SE,130,0.0,6.0,45,0.00,,,0.00,Wunderground v.1.15,2013-06-20 17:37:00,
2013-06-20 13:38:00,77.0,54.0,30.27,West,265,0.0,6.0,45,0.00,,,0.00,Wunderground v.1.15,2013-06-20 17:38:00,
2013-06-20 13:41:00,77.9,53.6,30.27,West,261,1.0,1.0,43,0.00,,,0.00,Wunderground v.1.15,2013-06-20 17:41:00,
2013-06-20 13:42:00,78.1,54.4,30.27,SE,138,1.0,1.0,44,0.00,,,0.00,Wunderground v.1.15,2013-06-20 17:42:00,
2013-06-20 13:43:00,78.3,52.7,30.27,SE,127,3.0,6.0,41,0.00,,,0.00,Wunderground v.1.15,2013-06-20 17:43:00,
2013-06-20 13:44:00,78.3,53.3,30.27,SSE,156,3.0,6.0,42,0.00,,,0.00,Wunderground v.1.15,2013-06-20 17:44:00,
2013-06-20 13:47:00,78.1,52.5,30.27,East,92,3.0,6.0,41,0.00,,,0.00,Wunderground v.1.15,2013-06-20 17:47:00,
2013-06-20 13:48:00,77.9,52.3,30.27,SSE,157,3.0,6.0,41,0.00,,,0.00,Wunderground v.1.15,2013-06-20 17:48:00,
2013-06-20 13:49:00,77.9,52.3,30.27,SSE,159,0.0,6.0,41,0.00,,,0.00,Wunderground v.1.15,2013-06-20 17:49:00,
2013-06-20 13:52:00,77.7,51.5,30.27,SSW,196,1.0,7.0,40,0.00,,,0.00,Wunderground v.1.15,2013-06-20 17:52:00,
2013-06-20 13:54:00,77.4,52.5,30.27,SE,130,3.0,7.0,42,0.00,,,0.00,Wunderground v.1.15,2013-06-20 17:54:00,
2013-06-20 13:57:00,77.6,54.0,30.27,SE,134,1.0,7.0,44,0.00,,,0.00,Wunderground v.1.15,2013-06-20 17:57:00,
2013-06-20 13:58:00,77.7,54.0,30.27,SW,223,1.0,7.0,44,0.00,,,0.00,Wunderground v.1.15,2013-06-20 17:58:00,
2013-06-20 13:59:00,77.7,52.8,30.27,SSW,203,5.0,7.0,42,0.00,,,0.00,Wunderground v.1.15,2013-06-20 17:59:00,
2013-06-20 14:00:00,77.7,52.8,30.27,SSW,201,2.0,2.0,42,0.00,,,0.00,Wunderground v.1.15,2013-06-20 18:00:00,
2013-06-20 14:02:00,77.4,50.5,30.27,SSE,154,6.0,6.0,39,0.00,,,0.00,Wunderground v.1.15,2013-06-20 18:02:00,
2013-06-20 14:03:00,77.6,52.7,30.27,SSE,155,0.0,6.0,42,0.00,,,0.00,Wunderground v.1.15,2013-06-20 18:03:00,
2013-06-20 14:05:00,77.6,50.7,30.27,SW,214,3.0,6.0,39,0.00,,,0.00,Wunderground v.1.15,2013-06-20 18:05:00,
2013-06-20 14:06:00,77.7,51.5,30.27,SSE,161,2.0,6.0,40,0.00,,,0.00,Wunderground v.1.15,2013-06-20 18:06:00,
2013-06-20 14:07:00,77.9,50.9,30.27,SSW,207,4.0,9.0,39,0.00,,,0.00,Wunderground v.1.15,2013-06-20 18:07:00,
2013-06-20 14:08:00,77.7,51.5,30.27,SSE,148,6.0,9.0,40,0.00,,,0.00,Wunderground v.1.15,2013-06-20 18:08:00,
2013-06-20 14:10:00,77.6,50.7,30.27,SE,142,2.0,2.0,39,0.00,,,0.00,Wunderground v.1.15,2013-06-20 18:10:00,
2013-06-20 14:11:00,77.6,52.0,30.27,ESE,113,4.0,4.0,41,0.00,,,0.00,Wunderground v.1.15,2013-06-20 18:11:00,
2013-06-20 14:12:00,77.6,51.4,30.27,SSE,155,3.0,9.0,40,0.00,,,0.00,Wunderground v.1.15,2013-06-20 18:12:00,
2013-06-20 14:14:00,77.4,51.2,30.27,SSE,148,2.0,9.0,40,0.00,,,0.00,Wunderground v.1.15,2013-06-20 18:14:00,
2013-06-20 14:15:00,77.4,51.9,30.27,SSE,149,0.0,9.0,41,0.00,,,0.00,Wunderground v.1.15,2013-06-20 18:15:00,
2013-06-20 14:16:00,77.6,53.3,30.27,SE,138,0.0,9.0,43,0.00,,,0.00,Wunderground v.1.15,2013-06-20 18:16:00,
2013-06-20 14:18:00,77.7,52.8,30.27,SW,223,1.0,9.0,42,0.00,,,0.00,Wunderground v.1.15,2013-06-20 18:18:00,
2013-06-20 14:19:00,77.7,55.3,30.26,West,267,2.0,9.0,46,0.00,,,0.00,Wunderground v.1.15,2013-06-20 18:19:00,
2013-06-20 14:20:00,77.9,53.6,30.27,South,185,2.0,4.0,43,0.00,,,0.00,Wunderground v.1.15,2013-06-20 18:20:00,
2013-06-20 14:22:00,78.3,54.6,30.27,South,188,2.0,4.0,44,0.00,,,0.00,Wunderground v.1.15,2013-06-20 18:22:00,
2013-06-20 14:23:00,78.5,54.8,30.26,SE,124,1.0,5.0,44,0.00,,,0.00,Wunderground v.1.15,2013-06-20 18:23:00,
2013-06-20 14:24:00,78.5,54.1,30.27,WNW,285,1.0,5.0,43,0.00,,,0.00,Wunderground v.1.15,2013-06-20 18:24:00,
2013-06-20 14:25:00,78.3,52.7,30.26,South,175,2.0,5.0,41,0.00,,,0.00,Wunderground v.1.15,2013-06-20 18:25:00,
2013-06-20 14:28:00,78.1,52.5,30.27,SSE,165,3.0,5.0,41,0.00,,,0.00,Wunderground v.1.15,2013-06-20 18:28:00,
2013-06-20 14:29:00,77.7,52.1,30.26,SE,138,1.0,5.0,41,0.00,,,0.00,Wunderground v.1.15,2013-06-20 18:29:00,
2013-06-20 14:30:00,77.6,52.7,30.26,SE,128,5.0,5.0,42,0.00,,,0.00,Wunderground v.1.15,2013-06-20 18:30:00,
2013-06-20 14:31:00,77.6,52.7,30.26,SE,126,3.0,5.0,42,0.00,,,0.00,Wunderground v.1.15,2013-06-20 18:31:00,
2013-06-20 14:33:00,76.8,51.3,30.26,SSW,199,6.0,10.0,41,0.00,,,0.00,Wunderground v.1.15,2013-06-20 18:33:00,
2013-06-20 14:34:00,76.5,51.7,30.26,SSE,156,5.0,10.0,42,0.00,,,0.00,Wunderground v.1.15,2013-06-20 18:34:00,
2013-06-20 14:35:00,76.3,52.2,30.26,South,175,5.0,10.0,43,0.00,,,0.00,Wunderground v.1.15,2013-06-20 18:35:00,
2013-06-20 14:36:00,76.3,52.2,30.26,South,170,3.0,10.0,43,0.00,,,0.00,Wunderground v.1.15,2013-06-20 18:36:00,
2013-06-20 14:39:00,76.7,52.5,30.26,SSE,165,1.0,10.0,43,0.00,,,0.00,Wunderground v.1.15,2013-06-20 18:39:00,
2013-06-20 14:41:00,76.7,52.5,30.26,SE,128,1.0,3.0,43,0.00,,,0.00,Wunderground v.1.15,2013-06-20 18:41:00,
2013-06-20 14:44:00,77.0,53.4,30.26,SE,142,0.0,4.0,44,0.00,,,0.00,Wunderground v.1.15,2013-06-20 18:44:00,
2013-06-20 14:46:00,77.4,53.8,30.26,South,177,1.0,4.0,44,0.00,,,0.00,Wunderground v.1.15,2013-06-20 18:46:00,
2013-06-20 14:49:00,77.9,54.2,30.26,SSW,196,2.0,7.0,44,0.00,,,0.00,Wunderground v.1.15,2013-06-20 18:49:00,
2013-06-20 14:50:00,77.9,53.6,30.26,WSW,241,2.0,4.0,43,0.00,,,0.00,Wunderground v.1.15,2013-06-20 18:50:00,
2013-06-20 14:51:00,77.9,53.0,30.26,East,94,1.0,4.0,42,0.00,,,0.00,Wunderground v.1.15,2013-06-20 18:51:00,
2013-06-20 14:52:00,77.9,53.6,30.26,SSW,194,2.0,4.0,43,0.00,,,0.00,Wunderground v.1.15,2013-06-20 18:52:00,
2013-06-20 14:54:00,77.9,53.6,30.26,South,190,3.0,6.0,43,0.00,,,0.00,Wunderground v.1.15,2013-06-20 18:54:00,
2013-06-20 14:55:00,77.7,52.8,30.26,SE,140,0.0,6.0,42,0.00,,,0.00,Wunderground v.1.15,2013-06-20 18:55:00,
2013-06-20 14:57:00,77.7,52.8,30.26,SSE,159,2.0,6.0,42,0.00,,,0.00,Wunderground v.1.15,2013-06-20 18:57:00,
2013-06-20 14:58:00,77.6,52.7,30.26,WSW,245,1.0,6.0,42,0.00,,,0.00,Wunderground v.1.15,2013-06-20 18:58:00,
2013-06-20 14:59:00,77.4,53.1,30.26,SSW,192,4.0,6.0,43,0.00,,,0.00,Wunderground v.1.15,2013-06-20 18:59:00,
2013-06-20 15:01:00,77.4,53.8,30.26,SE,126,5.0,5.0,44,0.00,,,0.00,Wunderground v.1.15,2013-06-20 19:01:00,
2013-06-20 15:02:00,77.2,53.6,30.26,SSE,152,1.0,7.0,44,0.00,,,0.00,Wunderground v.1.15,2013-06-20 19:02:00,
2013-06-20 15:03:00,77.0,52.8,30.26,SSE,155,0.0,7.0,43,0.00,,,0.00,Wunderground v.1.15,2013-06-20 19:03:00,
2013-06-20 15:05:00,77.0,53.4,30.26,SSE,163,3.0,7.0,44,0.00,,,0.00,Wunderground v.1.15,2013-06-20 19:05:00,
2013-06-20 15:06:00,77.0,52.8,30.26,SSE,161,0.0,7.0,43,0.00,,,0.00,Wunderground v.1.15,2013-06-20 19:06:00,
2013-06-20 15:07:00,77.0,52.8,30.26,SSE,161,0.0,7.0,43,0.00,,,0.00,Wunderground v.1.15,2013-06-20 19:07:00,
2013-06-20 15:09:00,77.2,54.2,30.26,SE,143,0.0,7.0,45,0.00,,,0.00,Wunderground v.1.15,2013-06-20 19:09:00,
2013-06-20 15:10:00,77.2,53.0,30.26,SE,126,4.0,4.0,43,0.00,,,0.00,Wunderground v.1.15,2013-06-20 19:10:00,
2013-06-20 15:11:00,76.8,52.6,30.26,ESE,118,3.0,5.0,43,0.00,,,0.00,Wunderground v.1.15,2013-06-20 19:11:00,
2013-06-20 15:12:00,76.7,53.1,30.26,SE,142,1.0,5.0,44,0.00,,,0.00,Wunderground v.1.15,2013-06-20 19:12:00,
2013-06-20 15:14:00,76.7,53.1,30.26,SE,141,4.0,7.0,44,0.00,,,0.00,Wunderground v.1.15,2013-06-20 19:14:00,
2013-06-20 15:15:00,76.7,52.5,30.26,SSE,157,0.0,9.0,43,0.00,,,0.00,Wunderground v.1.15,2013-06-20 19:15:00,
2013-06-20 15:17:00,76.7,52.5,30.26,SE,135,1.0,9.0,43,0.00,,,0.00,Wunderground v.1.15,2013-06-20 19:17:00,
2013-06-20 15:18:00,76.5,51.7,30.26,SE,134,3.0,9.0,42,0.00,,,0.00,Wunderground v.1.15,2013-06-20 19:18:00,
2013-06-20 15:19:00,76.3,52.8,30.26,SSW,195,0.0,9.0,44,0.00,,,0.00,Wunderground v.1.15,2013-06-20 19:19:00,
2013-06-20 15:20:00,76.3,52.8,30.26,ESE,123,5.0,5.0,44,0.00,,,0.00,Wunderground v.1.15,2013-06-20 19:20:00,
2013-06-20 15:22:00,76.3,52.2,30.26,SSE,157,0.0,9.0,43,0.00,,,0.00,Wunderground v.1.15,2013-06-20 19:22:00,
2013-06-20 15:24:00,76.1,53.2,30.26,SE,141,3.0,9.0,45,0.00,,,0.00,Wunderground v.1.15,2013-06-20 19:24:00,
2013-06-20 15:25:00,76.0,51.9,30.26,SE,144,0.0,9.0,43,0.00,,,0.00,Wunderground v.1.15,2013-06-20 19:25:00,
2013-06-20 15:26:00,76.0,51.9,30.26,South,180,2.0,9.0,43,0.00,,,0.00,Wunderground v.1.15,2013-06-20 19:26:00,
2013-06-20 15:27:00,76.1,52.6,30.26,NW,312,1.0,9.0,44,0.00,,,0.00,Wunderground v.1.15,2013-06-20 19:27:00,
2013-06-20 15:29:00,76.3,53.4,30.26,SSE,168,2.0,9.0,45,0.00,,,0.00,Wunderground v.1.15,2013-06-20 19:29:00,
2013-06-20 15:30:00,76.5,52.3,30.26,SE,127,3.0,3.0,43,0.00,,,0.00,Wunderground v.1.15,2013-06-20 19:30:00,
2013-06-20 15:31:00,76.5,53.0,30.26,ESE,117,3.0,9.0,44,0.00,,,0.00,Wunderground v.1.15,2013-06-20 19:31:00,
2013-06-20 15:32:00,76.3,52.8,30.26,SE,146,4.0,9.0,44,0.00,,,0.00,Wunderground v.1.15,2013-06-20 19:32:00,
2013-06-20 15:34:00,76.3,52.8,30.26,South,186,0.0,9.0,44,0.00,,,0.00,Wunderground v.1.15,2013-06-20 19:34:00,
2013-06-20 15:35:00,76.3,53.4,30.26,SSE,164,0.0,9.0,45,0.00,,,0.00,Wunderground v.1.15,2013-06-20 19:35:00,
2013-06-20 15:36:00,76.3,54.0,30.26,SSE,155,1.0,9.0,46,0.00,,,0.00,Wunderground v.1.15,2013-06-20 19:36:00,
2013-06-20 15:38:00,76.3,52.8,30.26,SE,133,1.0,9.0,44,0.00,,,0.00,Wunderground v.1.15,2013-06-20 19:38:00,
2013-06-20 15:39:00,76.3,52.8,30.26,SSW,194,1.0,9.0,44,0.00,,,0.00,Wunderground v.1.15,2013-06-20 19:39:00,
2013-06-20 15:40:00,76.3,52.2,30.26,South,173,0.0,2.0,43,0.00,,,0.00,Wunderground v.1.15,2013-06-20 19:40:00,
2013-06-20 15:41:00,76.3,52.8,30.26,SSE,151,4.0,5.0,44,0.00,,,0.00,Wunderground v.1.15,2013-06-20 19:41:00,
2013-06-20 15:43:00,76.1,51.3,30.26,SE,137,4.0,6.0,42,0.00,,,0.00,Wunderground v.1.15,2013-06-20 19:43:00,
2013-06-20 15:44:00,76.0,51.9,30.26,SE,139,3.0,6.0,43,0.00,,,0.00,Wunderground v.1.15,2013-06-20 19:44:00,
2013-06-20 15:45:00,75.8,52.3,30.26,SE,139,3.0,6.0,44,0.00,,,0.00,Wunderground v.1.15,2013-06-20 19:45:00,
2013-06-20 15:46:00,75.8,52.3,30.26,SSE,161,3.0,6.0,44,0.00,,,0.00,Wunderground v.1.15,2013-06-20 19:46:00,
2013-06-20 15:47:00,75.8,52.3,30.26,SSE,161,2.0,6.0,44,0.00,,,0.00,Wunderground v.1.15,2013-06-20 19:47:00,
2013-06-20 15:48:00,75.6,52.8,30.26,SE,141,3.0,6.0,45,0.00,,,0.00,Wunderground v.1.15,2013-06-20 19:48:00,
2013-06-20 15:49:00,75.6,53.4,30.26,ESE,117,3.0,6.0,46,0.00,,,0.00,Wunderground v.1.15,2013-06-20 19:49:00,
2013-06-20 15:50:00,76.0,53.1,30.26,ESE,121,1.0,2.0,45,0.00,,,0.00,Wunderground v.1.15,2013-06-20 19:50:00,
2013-06-20 15:52:00,76.1,53.8,30.26,SW,228,1.0,4.0,46,0.00,,,0.00,Wunderground v.1.15,2013-06-20 19:52:00,
2013-06-20 15:53:00,76.1,53.2,30.26,South,182,0.0,6.0,45,0.00,,,0.00,Wunderground v.1.15,2013-06-20 19:53:00,
2013-06-20 15:55:00,76.5,53.0,30.26,South,188,2.0,6.0,44,0.00,,,0.00,Wunderground v.1.15,2013-06-20 19:55:00,
2013-06-20 15:57:00,76.5,54.2,30.26,SE,136,1.0,6.0,46,0.00,,,0.00,Wunderground v.1.15,2013-06-20 19:57:00,
2013-06-20 15:58:00,76.7,53.8,30.26,SSE,164,0.0,6.0,45,0.00,,,0.00,Wunderground v.1.15,2013-06-20 19:58:00,
2013-06-20 16:00:00,76.8,53.2,30.26,ESE,123,4.0,7.0,44,0.00,,,0.00,Wunderground v.1.15,2013-06-20 20:00:00,
2013-06-20 16:01:00,76.7,53.1,30.26,ESE,111,3.0,7.0,44,0.00,,,0.00,Wunderground v.1.15,2013-06-20 20:01:00,
2013-06-20 16:02:00,76.5,53.0,30.26,SE,146,3.0,7.0,44,0.00,,,0.00,Wunderground v.1.15,2013-06-20 20:02:00,
2013-06-20 16:03:00,76.3,53.4,30.26,SSE,157,0.0,7.0,45,0.00,,,0.00,Wunderground v.1.15,2013-06-20 20:03:00,
2013-06-20 16:06:00,76.1,53.8,30.26,SSW,192,0.0,7.0,46,0.00,,,0.00,Wunderground v.1.15,2013-06-20 20:06:00,
2013-06-20 16:07:00,76.3,53.4,30.26,South,191,2.0,7.0,45,0.00,,,0.00,Wunderground v.1.15,2013-06-20 20:07:00,
2013-06-20 16:08:00,76.3,54.0,30.26,SSE,165,4.0,7.0,46,0.00,,,0.00,Wunderground v.1.15,2013-06-20 20:08:00,
2013-06-20 16:11:00,76.3,54.0,30.26,ESE,115,1.0,6.0,46,0.00,,,0.00,Wunderground v.1.15,2013-06-20 20:11:00,
2013-06-20 16:12:00,76.1,53.8,30.26,SE,128,0.0,6.0,46,0.00,,,0.00,Wunderground v.1.15,2013-06-20 20:12:00,
2013-06-20 16:14:00,76.1,54.4,30.26,SE,128,0.0,6.0,47,0.00,,,0.00,Wunderground v.1.15,2013-06-20 20:14:00,
2013-06-20 16:16:00,76.0,54.3,30.26,SSE,155,0.0,6.0,47,0.00,,,0.00,Wunderground v.1.15,2013-06-20 20:16:00,
2013-06-20 16:17:00,76.0,55.5,30.26,SSE,155,1.0,6.0,49,0.00,,,0.00,Wunderground v.1.15,2013-06-20 20:17:00,
2013-06-20 16:19:00,76.1,55.5,30.26,South,175,3.0,6.0,49,0.00,,,0.00,Wunderground v.1.15,2013-06-20 20:19:00,
2013-06-20 16:22:00,76.1,53.8,30.26,SSE,162,1.0,7.0,46,0.00,,,0.00,Wunderground v.1.15,2013-06-20 20:22:00,
2013-06-20 16:23:00,76.1,53.8,30.26,SW,231,1.0,7.0,46,0.00,,,0.00,Wunderground v.1.15,2013-06-20 20:23:00,
2013-06-20 16:24:00,76.1,54.4,30.26,ESE,106,2.0,7.0,47,0.00,,,0.00,Wunderground v.1.15,2013-06-20 20:24:00,
2013-06-20 16:25:00,76.1,53.8,30.26,South,184,6.0,7.0,46,0.00,,,0.00,Wunderground v.1.15,2013-06-20 20:25:00,
2013-06-20 16:27:00,76.1,53.8,30.26,SE,144,1.0,9.0,46,0.00,,,0.00,Wunderground v.1.15,2013-06-20 20:27:00,
2013-06-20 16:28:00,76.1,53.8,30.25,SSE,162,1.0,9.0,46,0.00,,,0.00,Wunderground v.1.15,2013-06-20 20:28:00,
2013-06-20 16:29:00,76.1,55.0,30.25,South,175,0.0,9.0,48,0.00,,,0.00,Wunderground v.1.15,2013-06-20 20:29:00,
2013-06-20 16:30:00,76.1,55.0,30.25,South,175,2.0,2.0,48,0.00,,,0.00,Wunderground v.1.15,2013-06-20 20:30:00,
2013-06-20 16:32:00,76.3,55.2,30.26,South,173,0.0,2.0,48,0.00,,,0.00,Wunderground v.1.15,2013-06-20 20:32:00,
2013-06-20 16:33:00,76.3,55.2,30.26,SSW,206,0.0,3.0,48,0.00,,,0.00,Wunderground v.1.15,2013-06-20 20:33:00,
2013-06-20 16:34:00,76.3,54.6,30.25,South,183,3.0,3.0,47,0.00,,,0.00,Wunderground v.1.15,2013-06-20 20:34:00,
2013-06-20 16:35:00,76.3,54.6,30.26,SSW,207,0.0,4.0,47,0.00,,,0.00,Wunderground v.1.15,2013-06-20 20:35:00,
2013-06-20 16:37:00,76.5,54.8,30.25,SE,142,0.0,5.0,47,0.00,,,0.00,Wunderground v.1.15,2013-06-20 20:37:00,
2013-06-20 16:39:00,76.5,55.3,30.26,SSE,152,1.0,5.0,48,0.00,,,0.00,Wunderground v.1.15,2013-06-20 20:39:00,
2013-06-20 16:40:00,76.5,55.3,30.26,SSE,152,1.0,1.0,48,0.00,,,0.00,Wunderground v.1.15,2013-06-20 20:40:00,
2013-06-20 16:41:00,76.7,56.1,30.26,SSE,152,0.0,1.0,49,0.00,,,0.00,Wunderground v.1.15,2013-06-20 20:41:00,
2013-06-20 16:43:00,76.7,55.5,30.25,SSE,152,0.0,1.0,48,0.00,,,0.00,Wunderground v.1.15,2013-06-20 20:43:00,
2013-06-20 16:44:00,76.7,55.5,30.25,SSE,165,3.0,4.0,48,0.00,,,0.00,Wunderground v.1.15,2013-06-20 20:44:00,
2013-06-20 16:45:00,76.7,55.5,30.25,SSE,165,0.0,4.0,48,0.00,,,0.00,Wunderground v.1.15,2013-06-20 20:45:00,
2013-06-20 16:46:00,76.8,55.0,30.26,South,175,0.0,5.0,47,0.00,,,0.00,Wunderground v.1.15,2013-06-20 20:46:00,
2013-06-20 16:48:00,76.8,55.0,30.25,WNW,284,1.0,5.0,47,0.00,,,0.00,Wunderground v.1.15,2013-06-20 20:48:00,
2013-06-20 16:49:00,76.8,54.5,30.25,SSE,157,0.0,5.0,46,0.00,,,0.00,Wunderground v.1.15,2013-06-20 20:49:00,
2013-06-20 16:50:00,76.8,54.5,30.26,SSE,154,1.0,1.0,46,0.00,,,0.00,Wunderground v.1.15,2013-06-20 20:50:00,
2013-06-20 16:51:00,76.8,55.6,30.26,SE,142,2.0,3.0,48,0.00,,,0.00,Wunderground v.1.15,2013-06-20 20:51:00,
2013-06-20 16:54:00,76.5,54.8,30.26,SE,136,1.0,5.0,47,0.00,,,0.00,Wunderground v.1.15,2013-06-20 20:54:00,
2013-06-20 16:55:00,76.1,55.0,30.26,SSE,155,0.0,5.0,48,0.00,,,0.00,Wunderground v.1.15,2013-06-20 20:55:00,
2013-06-20 16:56:00,76.1,55.0,30.26,ESE,102,2.0,5.0,48,0.00,,,0.00,Wunderground v.1.15,2013-06-20 20:56:00,
2013-06-20 16:57:00,76.1,55.0,30.26,ESE,102,0.0,5.0,48,0.00,,,0.00,Wunderground v.1.15,2013-06-20 20:57:00,
2013-06-20 16:59:00,76.0,54.9,30.26,SE,142,2.0,5.0,48,0.00,,,0.00,Wunderground v.1.15,2013-06-20 20:59:00,
2013-06-20 17:00:00,76.0,54.9,30.26,SSE,155,3.0,3.0,48,0.00,,,0.00,Wunderground v.1.15,2013-06-20 21:00:00,
2013-06-20 17:01:00,75.8,54.7,30.26,South,170,2.0,5.0,48,0.00,,,0.00,Wunderground v.1.15,2013-06-20 21:01:00,
2013-06-20 17:02:00,75.8,54.7,30.26,South,182,0.0,5.0,48,0.00,,,0.00,Wunderground v.1.15,2013-06-20 21:02:00,
2013-06-20 17:03:00,75.8,55.8,30.26,SSW,211,0.0,5.0,50,0.00,,,0.00,Wunderground v.1.15,2013-06-20 21:03:00,
2013-06-20 17:04:00,76.0,55.5,30.26,South,169,1.0,5.0,49,0.00,,,0.00,Wunderground v.1.15,2013-06-20 21:04:00,
2013-06-20 17:05:00,76.0,55.5,30.26,SSE,165,0.0,7.0,49,0.00,,,0.00,Wunderground v.1.15,2013-06-20 21:05:00,
2013-06-20 17:06:00,76.0,55.5,30.25,SSE,166,1.0,7.0,49,0.00,,,0.00,Wunderground v.1.15,2013-06-20 21:06:00,
2013-06-20 17:07:00,76.0,55.5,30.26,South,184,2.0,7.0,49,0.00,,,0.00,Wunderground v.1.15,2013-06-20 21:07:00,
2013-06-20 17:08:00,75.8,54.7,30.25,SW,217,1.0,9.0,48,0.00,,,0.00,Wunderground v.1.15,2013-06-20 21:08:00,
2013-06-20 17:09:00,75.8,55.3,30.25,SE,130,3.0,9.0,49,0.00,,,0.00,Wunderground v.1.15,2013-06-20 21:09:00,
2013-06-20 17:11:00,75.6,55.6,30.25,SE,132,1.0,3.0,50,0.00,,,0.00,Wunderground v.1.15,2013-06-20 21:11:00,
2013-06-20 17:12:00,75.6,55.6,30.25,South,180,1.0,6.0,50,0.00,,,0.00,Wunderground v.1.15,2013-06-20 21:12:00,
2013-06-20 17:13:00,75.6,55.1,30.25,SSW,196,2.0,6.0,49,0.00,,,0.00,Wunderground v.1.15,2013-06-20 21:13:00,
2013-06-20 17:14:00,75.6,54.5,30.25,South,169,3.0,6.0,48,0.00,,,0.00,Wunderground v.1.15,2013-06-20 21:14:00,
2013-06-20 17:16:00,75.6,54.5,30.25,SSE,162,0.0,6.0,48,0.00,,,0.00,Wunderground v.1.15,2013-06-20 21:16:00,
2013-06-20 17:17:00,75.8,54.7,30.25,SSE,161,0.0,6.0,48,0.00,,,0.00,Wunderground v.1.15,2013-06-20 21:17:00,
2013-06-20 17:18:00,75.8,55.3,30.26,SSE,154,2.0,6.0,49,0.00,,,0.00,Wunderground v.1.15,2013-06-20 21:18:00,
2013-06-20 17:20:00,75.8,54.7,30.26,SSE,161,1.0,1.0,48,0.00,,,0.00,Wunderground v.1.15,2013-06-20 21:20:00,
2013-06-20 17:22:00,76.0,54.9,30.25,East,95,2.0,2.0,48,0.00,,,0.00,Wunderground v.1.15,2013-06-20 21:22:00,
2013-06-20 17:25:00,76.0,54.3,30.26,SE,142,3.0,4.0,47,0.00,,,0.00,Wunderground v.1.15,2013-06-20 21:25:00,
2013-06-20 17:26:00,76.0,54.3,30.26,South,172,2.0,4.0,47,0.00,,,0.00,Wunderground v.1.15,2013-06-20 21:26:00,
2013-06-20 17:27:00,75.8,54.7,30.26,SSE,149,3.0,6.0,48,0.00,,,0.00,Wunderground v.1.15,2013-06-20 21:27:00,
2013-06-20 17:28:00,75.8,54.7,30.25,SSE,149,1.0,6.0,48,0.00,,,0.00,Wunderground v.1.15,2013-06-20 21:28:00,
2013-06-20 17:30:00,75.6,55.1,30.25,SSE,152,0.0,2.0,49,0.00,,,0.00,Wunderground v.1.15,2013-06-20 21:30:00,
2013-06-20 17:31:00,75.4,55.5,30.25,SSE,165,0.0,4.0,50,0.00,,,0.00,Wunderground v.1.15,2013-06-20 21:31:00,
2013-06-20 17:33:00,75.3,55.9,30.25,SSE,165,0.0,4.0,51,0.00,,,0.00,Wunderground v.1.15,2013-06-20 21:33:00,
2013-06-20 17:34:00,75.3,55.4,30.25,SSE,163,3.0,6.0,50,0.00,,,0.00,Wunderground v.1.15,2013-06-20 21:34:00,
2013-06-20 17:36:00,75.1,55.7,30.25,SSE,155,1.0,6.0,51,0.00,,,0.00,Wunderground v.1.15,2013-06-20 21:36:00,
2013-06-20 17:38:00,74.9,55.0,30.25,SW,214,1.0,6.0,50,0.00,,,0.00,Wunderground v.1.15,2013-06-20 21:38:00,
2013-06-20 17:39:00,74.9,55.6,30.25,SW,229,2.0,6.0,51,0.00,,,0.00,Wunderground v.1.15,2013-06-20 21:39:00,
2013-06-20 17:42:00,74.7,55.4,30.25,South,179,0.0,5.0,51,0.00,,,0.00,Wunderground v.1.15,2013-06-20 21:42:00,
2013-06-20 17:43:00,74.7,55.9,30.25,SSE,161,0.0,5.0,52,0.00,,,0.00,Wunderground v.1.15,2013-06-20 21:43:00,
2013-06-20 17:44:00,74.7,55.9,30.25,SSE,157,1.0,5.0,52,0.00,,,0.00,Wunderground v.1.15,2013-06-20 21:44:00,
2013-06-20 17:45:00,74.7,55.9,30.25,SSE,150,1.0,5.0,52,0.00,,,0.00,Wunderground v.1.15,2013-06-20 21:45:00,
2013-06-20 17:47:00,74.6,55.8,30.25,SSE,148,0.0,5.0,52,0.00,,,0.00,Wunderground v.1.15,2013-06-20 21:47:00,
2013-06-20 17:49:00,74.4,55.6,30.25,SE,131,3.0,5.0,52,0.00,,,0.00,Wunderground v.1.15,2013-06-20 21:49:00,
2013-06-20 17:50:00,74.4,56.2,30.25,SSW,213,1.0,1.0,53,0.00,,,0.00,Wunderground v.1.15,2013-06-20 21:50:00,
2013-06-20 17:53:00,74.2,56.0,30.25,South,175,1.0,6.0,53,0.00,,,0.00,Wunderground v.1.15,2013-06-20 21:53:00,
2013-06-20 17:54:00,74.2,56.0,30.25,South,179,1.0,6.0,53,0.00,,,0.00,Wunderground v.1.15,2013-06-20 21:54:00,
2013-06-20 17:55:00,74.2,56.5,30.26,South,176,1.0,6.0,54,0.00,,,0.00,Wunderground v.1.15,2013-06-20 21:55:00,
2013-06-20 17:58:00,74.2,56.5,30.26,East,80,1.0,6.0,54,0.00,,,0.00,Wunderground v.1.15,2013-06-20 21:58:00,
2013-06-20 17:59:00,74.2,56.0,30.26,ESE,108,0.0,6.0,53,0.00,,,0.00,Wunderground v.1.15,2013-06-20 21:59:00,
2013-06-20 18:00:00,74.2,56.0,30.26,ESE,108,0.0,1.0,53,0.00,,,0.00,Wunderground v.1.15,2013-06-20 22:00:00,
2013-06-20 18:03:00,74.0,55.8,30.26,SSW,192,2.0,2.0,53,0.00,,,0.00,Wunderground v.1.15,2013-06-20 22:03:00,
2013-06-20 18:04:00,74.0,55.3,30.26,SSW,194,0.0,3.0,52,0.00,,,0.00,Wunderground v.1.15,2013-06-20 22:04:00,
2013-06-20 18:05:00,74.0,55.3,30.26,SSW,194,0.0,3.0,52,0.00,,,0.00,Wunderground v.1.15,2013-06-20 22:05:00,
2013-06-20 18:06:00,73.9,55.2,30.26,SSW,194,0.0,3.0,52,0.00,,,0.00,Wunderground v.1.15,2013-06-20 22:06:00,
2013-06-20 18:09:00,73.9,55.7,30.26,South,186,1.0,4.0,53,0.00,,,0.00,Wunderground v.1.15,2013-06-20 22:09:00,
2013-06-20 18:10:00,73.9,55.2,30.26,South,174,1.0,2.0,52,0.00,,,0.00,Wunderground v.1.15,2013-06-20 22:10:00,
2013-06-20 18:11:00,73.9,55.7,30.26,SSE,165,4.0,5.0,53,0.00,,,0.00,Wunderground v.1.15,2013-06-20 22:11:00,
2013-06-20 18:12:00,73.9,55.7,30.26,SSE,165,0.0,5.0,53,0.00,,,0.00,Wunderground v.1.15,2013-06-20 22:12:00,
2013-06-20 18:14:00,73.7,55.5,30.26,SSE,165,2.0,5.0,53,0.00,,,0.00,Wunderground v.1.15,2013-06-20 22:14:00,
2013-06-20 18:15:00,73.7,55.5,30.26,SSE,166,0.0,5.0,53,0.00,,,0.00,Wunderground v.1.15,2013-06-20 22:15:00,
2013-06-20 18:16:00,73.7,55.5,30.26,SSE,166,0.0,5.0,53,0.00,,,0.00,Wunderground v.1.15,2013-06-20 22:16:00,
2013-06-20 18:17:00,73.7,55.5,30.26,SSE,166,2.0,5.0,53,0.00,,,0.00,Wunderground v.1.15,2013-06-20 22:17:00,
2013-06-20 18:18:00,73.7,54.4,30.26,SSE,163,1.0,5.0,51,0.00,,,0.00,Wunderground v.1.15,2013-06-20 22:18:00,
2013-06-20 18:20:00,73.5,53.7,30.26,SSE,157,3.0,3.0,50,0.00,,,0.00,Wunderground v.1.15,2013-06-20 22:20:00,
2013-06-20 18:21:00,73.5,53.7,30.26,SSE,157,2.0,3.0,50,0.00,,,0.00,Wunderground v.1.15,2013-06-20 22:21:00,
2013-06-20 18:22:00,73.5,54.3,30.26,WNW,303,4.0,4.0,51,0.00,,,0.00,Wunderground v.1.15,2013-06-20 22:22:00,
2013-06-20 18:23:00,73.3,54.1,30.26,SSW,200,2.0,5.0,51,0.00,,,0.00,Wunderground v.1.15,2013-06-20 22:23:00,
2013-06-20 18:26:00,73.2,54.0,30.26,SW,215,0.0,5.0,51,0.00,,,0.00,Wunderground v.1.15,2013-06-20 22:26:00,
2013-06-20 18:27:00,73.0,54.3,30.26,South,170,2.0,5.0,52,0.00,,,0.00,Wunderground v.1.15,2013-06-20 22:27:00,
2013-06-20 18:29:00,73.0,54.9,30.26,SSE,166,2.0,5.0,53,0.00,,,0.00,Wunderground v.1.15,2013-06-20 22:29:00,
2013-06-20 18:31:00,72.8,54.7,30.26,SSE,166,0.0,1.0,53,0.00,,,0.00,Wunderground v.1.15,2013-06-20 22:31:00,
2013-06-20 18:32:00,72.8,54.1,30.26,SSE,156,2.0,3.0,52,0.00,,,0.00,Wunderground v.1.15,2013-06-20 22:32:00,
2013-06-20 18:34:00,72.7,54.1,30.26,SE,136,0.0,3.0,52,0.00,,,0.00,Wunderground v.1.15,2013-06-20 22:34:00,
2013-06-20 18:36:00,72.7,53.0,30.26,SSW,202,1.0,9.0,50,0.00,,,0.00,Wunderground v.1.15,2013-06-20 22:36:00,
2013-06-20 18:37:00,72.7,53.0,30.26,SSW,198,2.0,9.0,50,0.00,,,0.00,Wunderground v.1.15,2013-06-20 22:37:00,
2013-06-20 18:38:00,72.7,53.5,30.26,SSW,194,0.0,9.0,51,0.00,,,0.00,Wunderground v.1.15,2013-06-20 22:38:00,
2013-06-20 18:40:00,72.5,53.3,30.26,SE,144,0.0,1.0,51,0.00,,,0.00,Wunderground v.1.15,2013-06-20 22:40:00,
2013-06-20 18:42:00,72.5,53.3,30.26,SSE,160,1.0,7.0,51,0.00,,,0.00,Wunderground v.1.15,2013-06-20 22:42:00,
2013-06-20 18:43:00,72.5,53.3,30.26,SSE,165,0.0,7.0,51,0.00,,,0.00,Wunderground v.1.15,2013-06-20 22:43:00,
2013-06-20 18:45:00,72.5,53.3,30.26,SSE,165,0.0,7.0,51,0.00,,,0.00,Wunderground v.1.15,2013-06-20 22:45:00,
2013-06-20 18:47:00,72.5,53.9,30.26,SSE,165,0.0,7.0,52,0.00,,,0.00,Wunderground v.1.15,2013-06-20 22:47:00,
2013-06-20 18:48:00,72.5,53.9,30.26,South,178,0.0,7.0,52,0.00,,,0.00,Wunderground v.1.15,2013-06-20 22:48:00,
2013-06-20 18:49:00,72.5,54.4,30.26,WSW,250,3.0,7.0,53,0.00,,,0.00,Wunderground v.1.15,2013-06-20 22:49:00,
2013-06-20 18:50:00,72.5,54.4,30.26,West,263,0.0,1.0,53,0.00,,,0.00,Wunderground v.1.15,2013-06-20 22:50:00,
2013-06-20 18:52:00,72.5,54.4,30.26,SSE,165,0.0,4.0,53,0.00,,,0.00,Wunderground v.1.15,2013-06-20 22:52:00,
2013-06-20 18:53:00,72.5,54.4,30.26,SW,236,2.0,4.0,53,0.00,,,0.00,Wunderground v.1.15,2013-06-20 22:53:00,
2013-06-20 18:54:00,72.5,54.4,30.26,WNW,292,1.0,4.0,53,0.00,,,0.00,Wunderground v.1.15,2013-06-20 22:54:00,
2013-06-20 18:55:00,72.5,54.4,30.26,WSW,249,1.0,4.0,53,0.00,,,0.00,Wunderground v.1.15,2013-06-20 22:55:00,
2013-06-20 18:57:00,72.5,53.3,30.26,SSE,159,0.0,4.0,51,0.00,,,0.00,Wunderground v.1.15,2013-06-20 22:57:00,
2013-06-20 18:59:00,72.5,53.3,30.26,SSE,159,0.0,4.0,51,0.00,,,0.00,Wunderground v.1.15,2013-06-20 22:59:00,
2013-06-20 19:00:00,72.5,53.3,30.26,SSE,159,0.0,0.0,51,0.00,,,0.00,Wunderground v.1.15,2013-06-20 23:00:00,
2013-06-20 19:03:00,72.7,53.5,30.26,SSE,159,1.0,2.0,51,0.00,,,0.00,Wunderground v.1.15,2013-06-20 23:03:00,
2013-06-20 19:04:00,72.7,54.1,30.26,South,170,2.0,4.0,52,0.00,,,0.00,Wunderground v.1.15,2013-06-20 23:04:00,
2013-06-20 19:06:00,72.7,53.5,30.25,South,184,0.0,7.0,51,0.00,,,0.00,Wunderground v.1.15,2013-06-20 23:06:00,
2013-06-20 19:08:00,72.7,54.1,30.25,SSE,165,0.0,7.0,52,0.00,,,0.00,Wunderground v.1.15,2013-06-20 23:08:00,
2013-06-20 19:09:00,72.7,54.1,30.26,SSE,163,0.0,7.0,52,0.00,,,0.00,Wunderground v.1.15,2013-06-20 23:09:00,
2013-06-20 19:10:00,72.7,54.1,30.26,SSE,163,0.0,1.0,52,0.00,,,0.00,Wunderground v.1.15,2013-06-20 23:10:00,
2013-06-20 19:11:00,72.7,54.1,30.26,SSE,163,0.0,1.0,52,0.00,,,0.00,Wunderground v.1.15,2013-06-20 23:11:00,
2013-06-20 19:13:00,72.7,53.5,30.26,SSW,200,0.0,1.0,51,0.00,,,0.00,Wunderground v.1.15,2013-06-20 23:13:00,
2013-06-20 19:14:00,72.7,54.1,30.26,SSW,200,0.0,1.0,52,0.00,,,0.00,Wunderground v.1.15,2013-06-20 23:14:00,
2013-06-20 19:15:00,72.7,54.1,30.26,SSW,198,0.0,1.0,52,0.00,,,0.00,Wunderground v.1.15,2013-06-20 23:15:00,
2013-06-20 19:16:00,72.7,53.5,30.26,SSW,201,0.0,1.0,51,0.00,,,0.00,Wunderground v.1.15,2013-06-20 23:16:00,
2013-06-20 19:17:00,72.7,53.5,30.26,SSW,201,1.0,1.0,51,0.00,,,0.00,Wunderground v.1.15,2013-06-20 23:17:00,
2013-06-20 19:19:00,72.5,53.3,30.25,WNW,294,0.0,6.0,51,0.00,,,0.00,Wunderground v.1.15,2013-06-20 23:19:00,
2013-06-20 19:21:00,72.5,53.3,30.25,SE,133,3.0,10.0,51,0.00,,,0.00,Wunderground v.1.15,2013-06-20 23:21:00,
2013-06-20 19:22:00,72.3,53.2,30.26,SE,144,1.0,10.0,51,0.00,,,0.00,Wunderground v.1.15,2013-06-20 23:22:00,
2013-06-20 19:25:00,72.1,51.9,30.26,SSE,155,3.0,10.0,49,0.00,,,0.00,Wunderground v.1.15,2013-06-20 23:25:00,
2013-06-20 19:26:00,72.1,51.3,30.26,SW,225,0.0,10.0,48,0.00,,,0.00,Wunderground v.1.15,2013-06-20 23:26:00,
2013-06-20 19:27:00,72.1,51.3,30.26,SW,229,0.0,10.0,48,0.00,,,0.00,Wunderground v.1.15,2013-06-20 23:27:00,
2013-06-20 19:30:00,71.8,51.0,30.25,SSE,162,1.0,3.0,48,0.00,,,0.00,Wunderground v.1.15,2013-06-20 23:30:00,
2013-06-20 19:31:00,71.8,51.0,30.25,WNW,297,2.0,5.0,48,0.00,,,0.00,Wunderground v.1.15,2013-06-20 23:31:00,
2013-06-20 19:32:00,71.8,51.0,30.26,WNW,287,0.0,5.0,48,0.00,,,0.00,Wunderground v.1.15,2013-06-20 23:32:00,
2013-06-20 19:35:00,71.6,50.9,30.26,SSE,163,1.0,5.0,48,0.00,,,0.00,Wunderground v.1.15,2013-06-20 23:35:00,
2013-06-20 19:36:00,71.6,50.9,30.26,West,274,4.0,5.0,48,0.00,,,0.00,Wunderground v.1.15,2013-06-20 23:36:00,
2013-06-20 19:37:00,71.6,50.9,30.26,SW,216,3.0,5.0,48,0.00,,,0.00,Wunderground v.1.15,2013-06-20 23:37:00,
2013-06-20 19:41:00,71.5,51.3,30.26,NW,325,0.0,1.0,49,0.00,,,0.00,Wunderground v.1.15,2013-06-20 23:41:00,
2013-06-20 19:42:00,71.5,51.9,30.26,NW,325,0.0,1.0,50,0.00,,,0.00,Wunderground v.1.15,2013-06-20 23:42:00,
2013-06-20 19:44:00,71.3,51.7,30.26,SSE,148,4.0,4.0,50,0.00,,,0.00,Wunderground v.1.15,2013-06-20 23:44:00,
2013-06-20 19:46:00,71.3,51.1,30.26,South,180,1.0,7.0,49,0.00,,,0.00,Wunderground v.1.15,2013-06-20 23:46:00,
2013-06-20 19:47:00,71.3,51.1,30.26,WSW,237,1.0,7.0,49,0.00,,,0.00,Wunderground v.1.15,2013-06-20 23:47:00,
2013-06-20 19:48:00,71.3,51.7,30.26,WSW,237,0.0,7.0,50,0.00,,,0.00,Wunderground v.1.15,2013-06-20 23:48:00,
2013-06-20 19:50:00,71.1,51.0,30.26,South,182,0.0,5.0,49,0.00,,,0.00,Wunderground v.1.15,2013-06-20 23:50:00,
2013-06-20 19:51:00,71.1,51.5,30.26,South,182,3.0,5.0,50,0.00,,,0.00,Wunderground v.1.15,2013-06-20 23:51:00,
2013-06-20 19:52:00,71.1,51.5,30.26,South,183,1.0,5.0,50,0.00,,,0.00,Wunderground v.1.15,2013-06-20 23:52:00,
2013-06-20 19:53:00,70.9,51.3,30.26,SE,137,1.0,5.0,50,0.00,,,0.00,Wunderground v.1.15,2013-06-20 23:53:00,
2013-06-20 19:56:00,70.9,51.3,30.26,South,186,0.0,5.0,50,0.00,,,0.00,Wunderground v.1.15,2013-06-20 23:56:00,
2013-06-20 19:57:00,70.9,51.3,30.26,South,180,1.0,5.0,50,0.00,,,0.00,Wunderground v.1.15,2013-06-20 23:57:00,
2013-06-20 19:58:00,70.8,51.2,30.26,South,170,1.0,5.0,50,0.00,,,0.00,Wunderground v.1.15,2013-06-20 23:58:00,
2013-06-20 19:59:00,70.8,51.8,30.26,South,170,0.0,5.0,51,0.00,,,0.00,Wunderground v.1.15,2013-06-20 23:59:00,
2013-06-20 20:01:00,70.8,51.8,30.26,South,169,0.0,2.0,51,0.00,,,0.00,Wunderground v.1.15,2013-06-21 00:01:00,
2013-06-20 20:02:00,70.8,51.8,30.26,SE,146,4.0,4.0,51,0.00,,,0.00,Wunderground v.1.15,2013-06-21 00:02:00,
2013-06-20 20:04:00,70.6,51.6,30.26,NE,36,0.0,4.0,51,0.00,,,0.00,Wunderground v.1.15,2013-06-21 00:04:00,
2013-06-20 20:06:00,70.4,51.4,30.26,NE,37,0.0,4.0,51,0.00,,,0.00,Wunderground v.1.15,2013-06-21 00:06:00,
2013-06-20 20:07:00,70.4,51.4,30.26,NE,37,0.0,4.0,51,0.00,,,0.00,Wunderground v.1.15,2013-06-21 00:07:00,
2013-06-20 20:08:00,70.4,51.9,30.26,WNW,296,2.0,4.0,52,0.00,,,0.00,Wunderground v.1.15,2013-06-21 00:08:00,
2013-06-20 20:09:00,70.3,51.8,30.26,West,262,0.0,5.0,52,0.00,,,0.00,Wunderground v.1.15,2013-06-21 00:09:00,
2013-06-20 20:12:00,70.3,51.8,30.26,South,183,0.0,1.0,52,0.00,,,0.00,Wunderground v.1.15,2013-06-21 00:12:00,
2013-06-20 20:13:00,70.1,52.2,30.26,South,183,0.0,1.0,53,0.00,,,0.00,Wunderground v.1.15,2013-06-21 00:13:00,
2013-06-20 20:14:00,70.1,52.2,30.26,South,183,0.0,1.0,53,0.00,,,0.00,Wunderground v.1.15,2013-06-21 00:14:00,
2013-06-20 20:17:00,69.8,52.4,30.26,SE,138,0.0,4.0,54,0.00,,,0.00,Wunderground v.1.15,2013-06-21 00:17:00,
2013-06-20 20:18:00,69.8,52.4,30.26,SE,138,1.0,4.0,54,0.00,,,0.00,Wunderground v.1.15,2013-06-21 00:18:00,
2013-06-20 20:19:00,69.8,52.4,30.26,SE,138,0.0,4.0,54,0.00,,,0.00,Wunderground v.1.15,2013-06-21 00:19:00,
2013-06-20 20:20:00,69.8,52.4,30.26,SE,138,0.0,1.0,54,0.00,,,0.00,Wunderground v.1.15,2013-06-21 00:20:00,
2013-06-20 20:22:00,69.6,52.2,30.26,SE,130,3.0,5.0,54,0.00,,,0.00,Wunderground v.1.15,2013-06-21 00:22:00,
2013-06-20 20:24:00,69.6,52.7,30.26,SE,130,0.0,5.0,55,0.00,,,0.00,Wunderground v.1.15,2013-06-21 00:24:00,
2013-06-20 20:25:00,69.6,52.7,30.26,SE,130,0.0,5.0,55,0.00,,,0.00,Wunderground v.1.15,2013-06-21 00:25:00,
2013-06-20 20:28:00,69.4,53.0,30.26,SE,141,0.0,5.0,56,0.00,,,0.00,Wunderground v.1.15,2013-06-21 00:28:00,
2013-06-20 20:29:00,69.4,53.0,30.26,SE,141,0.0,5.0,56,0.00,,,0.00,Wunderground v.1.15,2013-06-21 00:29:00,
2013-06-20 20:30:00,69.4,53.0,30.26,SE,141,1.0,1.0,56,0.00,,,0.00,Wunderground v.1.15,2013-06-21 00:30:00,
2013-06-20 20:33:00,69.3,52.9,30.26,SSE,151,0.0,1.0,56,0.00,,,0.00,Wunderground v.1.15,2013-06-21 00:33:00,
2013-06-20 20:34:00,69.3,52.9,30.26,SSE,151,0.0,1.0,56,0.00,,,0.00,Wunderground v.1.15,2013-06-21 00:34:00,
2013-06-20 20:35:00,69.3,53.4,30.26,SSE,153,4.0,4.0,57,0.00,,,0.00,Wunderground v.1.15,2013-06-21 00:35:00,
2013-06-20 20:38:00,69.1,53.2,30.26,SE,124,0.0,4.0,57,0.00,,,0.00,Wunderground v.1.15,2013-06-21 00:38:00,
2013-06-20 20:39:00,69.1,53.7,30.26,South,178,1.0,4.0,58,0.00,,,0.00,Wunderground v.1.15,2013-06-21 00:39:00,
2013-06-20 20:40:00,69.1,53.7,30.26,South,178,1.0,1.0,58,0.00,,,0.00,Wunderground v.1.15,2013-06-21 00:40:00,
2013-06-20 20:41:00,68.9,53.5,30.26,South,188,0.0,3.0,58,0.00,,,0.00,Wunderground v.1.15,2013-06-21 00:41:00,
2013-06-20 20:44:00,68.9,53.5,30.26,South,181,0.0,3.0,58,0.00,,,0.00,Wunderground v.1.15,2013-06-21 00:44:00,
2013-06-20 20:45:00,68.9,53.5,30.26,South,181,0.0,3.0,58,0.00,,,0.00,Wunderground v.1.15,2013-06-21 00:45:00,
2013-06-20 20:46:00,68.8,53.9,30.26,South,181,0.0,3.0,59,0.00,,,0.00,Wunderground v.1.15,2013-06-21 00:46:00,
2013-06-20 20:49:00,68.8,53.9,30.26,South,181,0.0,3.0,59,0.00,,,0.00,Wunderground v.1.15,2013-06-21 00:49:00,
2013-06-20 20:50:00,68.8,53.9,30.26,SSE,162,0.0,0.0,59,0.00,,,0.00,Wunderground v.1.15,2013-06-21 00:50:00,
2013-06-20 20:51:00,68.6,54.2,30.26,SSE,162,0.0,3.0,60,0.00,,,0.00,Wunderground v.1.15,2013-06-21 00:51:00,
2013-06-20 20:55:00,68.6,54.2,30.26,SW,216,4.0,4.0,60,0.00,,,0.00,Wunderground v.1.15,2013-06-21 00:55:00,
2013-06-20 20:56:00,68.4,54.0,30.26,SSW,192,2.0,5.0,60,0.00,,,0.00,Wunderground v.1.15,2013-06-21 00:56:00,
2013-06-20 21:00:00,68.4,54.0,30.26,SW,231,0.0,1.0,60,0.00,,,0.00,Wunderground v.1.15,2013-06-21 01:00:00,
2013-06-20 21:01:00,68.4,54.0,30.26,SW,231,0.0,1.0,60,0.00,,,0.00,Wunderground v.1.15,2013-06-21 01:01:00,
2013-06-20 21:05:00,68.3,53.9,30.26,SSE,161,0.0,7.0,60,0.00,,,0.00,Wunderground v.1.15,2013-06-21 01:05:00,
2013-06-20 21:06:00,68.3,53.9,30.26,SSE,161,0.0,7.0,60,0.00,,,0.00,Wunderground v.1.15,2013-06-21 01:06:00,
2013-06-20 21:07:00,68.3,54.3,30.26,SSE,161,0.0,7.0,61,0.00,,,0.00,Wunderground v.1.15,2013-06-21 01:07:00,
2013-06-20 21:11:00,68.1,54.1,30.26,SSE,162,0.0,1.0,61,0.00,,,0.00,Wunderground v.1.15,2013-06-21 01:11:00,
2013-06-20 21:12:00,68.1,54.1,30.26,SSE,162,0.0,1.0,61,0.00,,,0.00,Wunderground v.1.15,2013-06-21 01:12:00,
2013-06-20 21:16:00,67.9,54.0,30.26,South,171,2.0,2.0,61,0.00,,,0.00,Wunderground v.1.15,2013-06-21 01:16:00,
2013-06-20 21:17:00,67.9,54.0,30.26,SSE,168,1.0,3.0,61,0.00,,,0.00,Wunderground v.1.15,2013-06-21 01:17:00,
2013-06-20 21:18:00,67.9,54.0,30.26,SSE,168,0.0,3.0,61,0.00,,,0.00,Wunderground v.1.15,2013-06-21 01:18:00,
2013-06-20 21:21:00,67.8,53.9,30.26,West,281,0.0,3.0,61,0.00,,,0.00,Wunderground v.1.15,2013-06-21 01:21:00,
2013-06-20 21:22:00,67.8,53.9,30.26,West,281,0.0,3.0,61,0.00,,,0.00,Wunderground v.1.15,2013-06-21 01:22:00,
2013-06-20 21:23:00,67.8,53.9,30.26,West,281,0.0,3.0,61,0.00,,,0.00,Wunderground v.1.15,2013-06-21 01:23:00,
2013-06-20 21:27:00,67.6,53.7,30.27,West,281,0.0,3.0,61,0.00,,,0.00,Wunderground v.1.15,2013-06-21 01:27:00,
2013-06-20 21:28:00,67.6,53.7,30.27,West,281,0.0,3.0,61,0.00,,,0.00,Wunderground v.1.15,2013-06-21 01:28:00,
2013-06-20 21:32:00,67.4,53.5,30.27,West,281,0.0,0.0,61,0.00,,,0.00,Wunderground v.1.15,2013-06-21 01:32:00,
2013-06-20 21:33:00,67.4,53.5,30.27,West,281,0.0,0.0,61,0.00,,,0.00,Wunderground v.1.15,2013-06-21 01:33:00,
2013-06-20 21:34:00,67.4,53.5,30.27,West,281,0.0,0.0,61,0.00,,,0.00,Wunderground v.1.15,2013-06-21 01:34:00,
2013-06-20 21:37:00,67.4,53.5,30.27,West,281,0.0,0.0,61,0.00,,,0.00,Wunderground v.1.15,2013-06-21 01:37:00,
2013-06-20 21:38:00,67.3,53.4,30.27,West,281,0.0,0.0,61,0.00,,,0.00,Wunderground v.1.15,2013-06-21 01:38:00,
2013-06-20 21:39:00,67.3,53.4,30.27,West,281,0.0,0.0,61,0.00,,,0.00,Wunderground v.1.15,2013-06-21 01:39:00,
2013-06-20 21:42:00,67.1,53.6,30.27,West,281,1.0,1.0,62,0.00,,,0.00,Wunderground v.1.15,2013-06-21 01:42:00,
2013-06-20 21:43:00,67.1,53.6,30.27,West,281,0.0,1.0,62,0.00,,,0.00,Wunderground v.1.15,2013-06-21 01:43:00,
2013-06-20 21:44:00,67.1,53.6,30.27,West,281,0.0,1.0,62,0.00,,,0.00,Wunderground v.1.15,2013-06-21 01:44:00,
2013-06-20 21:47:00,67.1,53.6,30.27,West,281,0.0,1.0,62,0.00,,,0.00,Wunderground v.1.15,2013-06-21 01:47:00,
2013-06-20 21:48:00,67.1,53.6,30.27,West,280,2.0,2.0,62,0.00,,,0.00,Wunderground v.1.15,2013-06-21 01:48:00,
2013-06-20 21:50:00,66.9,53.5,30.27,West,280,0.0,0.0,62,0.00,,,0.00,Wunderground v.1.15,2013-06-21 01:50:00,
2013-06-20 21:52:00,66.9,53.5,30.27,West,280,0.0,0.0,62,0.00,,,0.00,Wunderground v.1.15,2013-06-21 01:52:00,
2013-06-20 21:53:00,66.9,53.5,30.28,West,280,0.0,0.0,62,0.00,,,0.00,Wunderground v.1.15,2013-06-21 01:53:00,
2013-06-20 21:54:00,66.9,53.5,30.28,West,280,0.0,0.0,62,0.00,,,0.00,Wunderground v.1.15,2013-06-21 01:54:00,
2013-06-20 21:55:00,66.8,53.4,30.28,West,280,0.0,0.0,62,0.00,,,0.00,Wunderground v.1.15,2013-06-21 01:55:00,
2013-06-20 21:57:00,66.8,53.4,30.28,West,280,1.0,1.0,62,0.00,,,0.00,Wunderground v.1.15,2013-06-21 01:57:00,
2013-06-20 21:59:00,66.8,53.8,30.28,West,280,0.0,2.0,63,0.00,,,0.00,Wunderground v.1.15,2013-06-21 01:59:00,
2013-06-20 22:00:00,66.8,53.8,30.27,West,280,0.0,0.0,63,0.00,,,0.00,Wunderground v.1.15,2013-06-21 02:00:00,
2013-06-20 22:03:00,66.6,53.6,30.28,West,280,0.0,0.0,63,0.00,,,0.00,Wunderground v.1.15,2013-06-21 02:03:00,
2013-06-20 22:04:00,66.6,53.6,30.27,West,280,0.0,0.0,63,0.00,,,0.00,Wunderground v.1.15,2013-06-21 02:04:00,
2013-06-20 22:05:00,66.6,53.6,30.27,West,280,0.0,0.0,63,0.00,,,0.00,Wunderground v.1.15,2013-06-21 02:05:00,
2013-06-20 22:06:00,66.6,53.6,30.27,West,280,0.0,0.0,63,0.00,,,0.00,Wunderground v.1.15,2013-06-21 02:06:00,
2013-06-20 22:09:00,66.4,53.4,30.27,West,280,0.0,1.0,63,0.00,,,0.00,Wunderground v.1.15,2013-06-21 02:09:00,
2013-06-20 22:10:00,66.4,53.8,30.27,West,280,0.0,0.0,64,0.00,,,0.00,Wunderground v.1.15,2013-06-21 02:10:00,
2013-06-20 22:11:00,66.4,53.8,30.27,West,280,0.0,0.0,64,0.00,,,0.00,Wunderground v.1.15,2013-06-21 02:11:00,
2013-06-20 22:14:00,66.4,53.8,30.27,West,280,0.0,0.0,64,0.00,,,0.00,Wunderground v.1.15,2013-06-21 02:14:00,
2013-06-20 22:15:00,66.3,53.8,30.27,West,280,0.0,0.0,64,0.00,,,0.00,Wunderground v.1.15,2013-06-21 02:15:00,
2013-06-20 22:16:00,66.3,53.8,30.27,West,280,0.0,1.0,64,0.00,,,0.00,Wunderground v.1.15,2013-06-21 02:16:00,
2013-06-20 22:19:00,66.3,53.8,30.27,West,280,0.0,1.0,64,0.00,,,0.00,Wunderground v.1.15,2013-06-21 02:19:00,
2013-06-20 22:20:00,66.3,53.8,30.27,West,280,0.0,0.0,64,0.00,,,0.00,Wunderground v.1.15,2013-06-21 02:20:00,
2013-06-20 22:21:00,66.3,53.8,30.27,West,280,0.0,0.0,64,0.00,,,0.00,Wunderground v.1.15,2013-06-21 02:21:00,
2013-06-20 22:22:00,66.3,53.8,30.27,West,280,0.0,0.0,64,0.00,,,0.00,Wunderground v.1.15,2013-06-21 02:22:00,
2013-06-20 22:24:00,66.3,53.8,30.27,West,280,0.0,0.0,64,0.00,,,0.00,Wunderground v.1.15,2013-06-21 02:24:00,
2013-06-20 22:26:00,66.1,53.6,30.27,West,280,0.0,0.0,64,0.00,,,0.00,Wunderground v.1.15,2013-06-21 02:26:00,
2013-06-20 22:27:00,66.1,53.6,30.27,West,280,0.0,0.0,64,0.00,,,0.00,Wunderground v.1.15,2013-06-21 02:27:00,
2013-06-20 22:31:00,66.1,53.6,30.28,West,280,0.0,0.0,64,0.00,,,0.00,Wunderground v.1.15,2013-06-21 02:31:00,
2013-06-20 22:32:00,66.0,53.9,30.28,West,280,0.0,0.0,65,0.00,,,0.00,Wunderground v.1.15,2013-06-21 02:32:00,
2013-06-20 22:36:00,66.0,53.9,30.28,West,280,0.0,0.0,65,0.00,,,0.00,Wunderground v.1.15,2013-06-21 02:36:00,
2013-06-20 22:37:00,65.8,53.7,30.28,West,280,0.0,0.0,65,0.00,,,0.00,Wunderground v.1.15,2013-06-21 02:37:00,
2013-06-20 22:41:00,65.6,53.5,30.28,West,280,0.0,0.0,65,0.00,,,0.00,Wunderground v.1.15,2013-06-21 02:41:00,
2013-06-20 22:42:00,65.6,53.5,30.28,West,280,0.0,0.0,65,0.00,,,0.00,Wunderground v.1.15,2013-06-21 02:42:00,
2013-06-20 22:43:00,65.6,53.5,30.28,West,280,0.0,0.0,65,0.00,,,0.00,Wunderground v.1.15,2013-06-21 02:43:00,
2013-06-20 22:46:00,65.5,53.8,30.28,West,280,0.0,0.0,66,0.00,,,0.00,Wunderground v.1.15,2013-06-21 02:46:00,
2013-06-20 22:47:00,65.5,53.8,30.28,West,280,0.0,0.0,66,0.00,,,0.00,Wunderground v.1.15,2013-06-21 02:47:00,
2013-06-20 22:48:00,65.3,53.6,30.28,West,280,0.0,0.0,66,0.00,,,0.00,Wunderground v.1.15,2013-06-21 02:48:00,
2013-06-20 22:52:00,65.3,53.6,30.28,West,280,0.0,0.0,66,0.00,,,0.00,Wunderground v.1.15,2013-06-21 02:52:00,
2013-06-20 22:53:00,65.2,53.6,30.28,West,280,0.0,0.0,66,0.00,,,0.00,Wunderground v.1.15,2013-06-21 02:53:00,
2013-06-20 22:54:00,65.2,53.6,30.28,West,280,0.0,0.0,66,0.00,,,0.00,Wunderground v.1.15,2013-06-21 02:54:00,
2013-06-20 22:57:00,65.2,53.6,30.28,West,280,0.0,0.0,66,0.00,,,0.00,Wunderground v.1.15,2013-06-21 02:57:00,
2013-06-20 22:58:00,65.0,53.4,30.28,West,280,0.0,0.0,66,0.00,,,0.00,Wunderground v.1.15,2013-06-21 02:58:00,
2013-06-20 22:59:00,65.0,53.4,30.28,West,280,0.0,0.0,66,0.00,,,0.00,Wunderground v.1.15,2013-06-21 02:59:00,
2013-06-20 23:03:00,65.0,53.4,30.28,West,280,0.0,2.0,66,0.00,,,0.00,Wunderground v.1.15,2013-06-21 03:03:00,
2013-06-20 23:04:00,65.0,53.4,30.28,West,280,0.0,2.0,66,0.00,,,0.00,Wunderground v.1.15,2013-06-21 03:04:00,
2013-06-20 23:08:00,65.0,53.4,30.28,West,280,0.0,2.0,66,0.00,,,0.00,Wunderground v.1.15,2013-06-21 03:08:00,
2013-06-20 23:09:00,64.8,53.2,30.28,West,280,0.0,2.0,66,0.00,,,0.00,Wunderground v.1.15,2013-06-21 03:09:00,
2013-06-20 23:13:00,64.7,53.5,30.28,West,280,0.0,0.0,67,0.00,,,0.00,Wunderground v.1.15,2013-06-21 03:13:00,
2013-06-20 23:14:00,64.7,53.5,30.28,West,280,0.0,0.0,67,0.00,,,0.00,Wunderground v.1.15,2013-06-21 03:14:00,
2013-06-20 23:15:00,64.7,53.5,30.28,West,280,0.0,0.0,67,0.00,,,0.00,Wunderground v.1.15,2013-06-21 03:15:00,
2013-06-20 23:18:00,64.5,53.7,30.27,West,280,0.0,0.0,68,0.00,,,0.00,Wunderground v.1.15,2013-06-21 03:18:00,
2013-06-20 23:20:00,64.5,53.7,30.27,West,280,0.0,0.0,68,0.00,,,0.00,Wunderground v.1.15,2013-06-21 03:20:00,
2013-06-20 23:22:00,64.5,53.7,30.27,West,280,0.0,0.0,68,0.00,,,0.00,Wunderground v.1.15,2013-06-21 03:22:00,
2013-06-20 23:23:00,64.3,53.5,30.27,West,280,0.0,0.0,68,0.00,,,0.00,Wunderground v.1.15,2013-06-21 03:23:00,
2013-06-20 23:25:00,64.3,53.9,30.28,West,280,0.0,0.0,69,0.00,,,0.00,Wunderground v.1.15,2013-06-21 03:25:00,
2013-06-20 23:26:00,64.3,53.9,30.28,West,280,0.0,0.0,69,0.00,,,0.00,Wunderground v.1.15,2013-06-21 03:26:00,
2013-06-20 23:27:00,64.3,53.9,30.28,West,280,0.0,0.0,69,0.00,,,0.00,Wunderground v.1.15,2013-06-21 03:27:00,
2013-06-20 23:29:00,64.3,53.9,30.28,West,280,0.0,0.0,69,0.00,,,0.00,Wunderground v.1.15,2013-06-21 03:29:00,
2013-06-20 23:30:00,64.2,53.8,30.28,West,280,0.0,0.0,69,0.00,,,0.00,Wunderground v.1.15,2013-06-21 03:30:00,
2013-06-20 23:31:00,64.2,54.2,30.28,West,280,0.0,0.0,70,0.00,,,0.00,Wunderground v.1.15,2013-06-21 03:31:00,
2013-06-20 23:33:00,64.2,54.2,30.28,West,280,0.0,0.0,70,0.00,,,0.00,Wunderground v.1.15,2013-06-21 03:33:00,
2013-06-20 23:34:00,64.2,54.2,30.28,West,280,0.0,0.0,70,0.00,,,0.00,Wunderground v.1.15,2013-06-21 03:34:00,
2013-06-20 23:35:00,64.0,54.0,30.28,West,280,0.0,0.0,70,0.00,,,0.00,Wunderground v.1.15,2013-06-21 03:35:00,
2013-06-20 23:36:00,64.0,54.0,30.28,West,280,0.0,0.0,70,0.00,,,0.00,Wunderground v.1.15,2013-06-21 03:36:00,
2013-06-20 23:38:00,63.9,53.9,30.28,West,280,0.0,0.0,70,0.00,,,0.00,Wunderground v.1.15,2013-06-21 03:38:00,
2013-06-20 23:39:00,63.9,53.9,30.28,West,280,0.0,0.0,70,0.00,,,0.00,Wunderground v.1.15,2013-06-21 03:39:00,
2013-06-20 23:40:00,63.9,54.3,30.28,West,280,0.0,0.0,71,0.00,,,0.00,Wunderground v.1.15,2013-06-21 03:40:00,
2013-06-20 23:41:00,63.7,54.1,30.28,West,280,0.0,0.0,71,0.00,,,0.00,Wunderground v.1.15,2013-06-21 03:41:00,
2013-06-20 23:43:00,63.7,54.1,30.28,West,280,0.0,0.0,71,0.00,,,0.00,Wunderground v.1.15,2013-06-21 03:43:00,
2013-06-20 23:44:00,63.7,54.5,30.28,West,280,0.0,0.0,72,0.00,,,0.00,Wunderground v.1.15,2013-06-21 03:44:00,
2013-06-20 23:46:00,63.5,54.3,30.28,West,280,0.0,0.0,72,0.00,,,0.00,Wunderground v.1.15,2013-06-21 03:46:00,
2013-06-20 23:48:00,63.5,54.3,30.28,West,280,0.0,0.0,72,0.00,,,0.00,Wunderground v.1.15,2013-06-21 03:48:00,
2013-06-20 23:50:00,63.4,54.2,30.28,West,280,0.0,0.0,72,0.00,,,0.00,Wunderground v.1.15,2013-06-21 03:50:00,
2013-06-20 23:51:00,63.4,54.2,30.28,West,280,0.0,0.0,72,0.00,,,0.00,Wunderground v.1.15,2013-06-21 03:51:00,
2013-06-20 23:52:00,63.4,54.2,30.28,West,280,0.0,0.0,72,0.00,,,0.00,Wunderground v.1.15,2013-06-21 03:52:00,
2013-06-20 23:54:00,63.4,54.2,30.28,West,280,0.0,0.0,72,0.00,,,0.00,Wunderground v.1.15,2013-06-21 03:54:00,
2013-06-20 23:55:00,63.4,54.2,30.28,West,280,0.0,0.0,72,0.00,,,0.00,Wunderground v.1.15,2013-06-21 03:55:00,
2013-06-20 23:56:00,63.4,54.6,30.28,West,280,0.0,0.0,73,0.00,,,0.00,Wunderground v.1.15,2013-06-21 03:56:00,
2013-06-20 23:57:00,63.4,54.6,30.28,West,280,0.0,0.0,73,0.00,,,0.00,Wunderground v.1.15,2013-06-21 03:57:00,
2013-06-20 23:59:00,63.4,54.6,30.28,West,280,0.0,0.0,73,0.00,,,0.00,Wunderground v.1.15,2013-06-21 03:59:00,